                ,  0.200,  0.300,  0.400,  0.500,  0.600,  0.700,  0.800,  0.900,  1.000,  1.100,  1.200,  1.300,  1.400,  1.500,  1.600,  1.700,  1.800,  1.900,  2.000,  2.100,  2.200,  2.300,  2.400,  2.500,  2.600,  2.700,  2.800,  2.900,  3.000,  3.100,  3.200,  3.300,  3.400,  3.500,  3.600,  3.700,  3.800,  3.900,  4.000,  4.100,  4.200,  4.300,  4.400,  4.500,  4.600,  4.700,  4.800,  4.900,  5.000,  5.100,  5.200,  5.300,  5.400,  5.500,  5.600,  5.700,  5.800,  5.900,  6.000,  6.100,  6.200,  6.300,  6.400,  6.500,  6.600,  6.700,  6.800,  6.900,  7.000,  7.100,  7.200,  7.300,  7.400,  7.500,  7.600,  7.700,  7.800,  7.900,  8.000,  8.100,  8.200,  8.300,  8.400,  8.500,  8.600,  8.700,  8.800,  8.900,  9.000,  9.100,  9.200,  9.300,  9.400,  9.500,  9.600,  9.700,  9.800,  9.900, 10.000
2008/06/09 00:00,  999.0,   -2.9,   -3.0,   -3.0,   -3.1,   -3.0,   -3.2,   -3.2,   -3.2,   -3.1,   -3.1,   -3.1,   -3.1,   -3.1,   -3.1,   -3.4,   -3.3,   -3.5,   -3.3,   -3.4,   -3.7,   -3.8,   -3.8,   -4.1,   -4.8,   -5.1,   -5.1,   -5.1,   -5.1,   -5.1,   -5.1,   -5.1,   -5.1,   -5.2,   -5.3,   -5.3,   -5.3,   -5.3,   -5.3,   -5.3,   -5.1,   -4.9,   -4.5,   -3.6,  999.0,   -2.1,   -1.7,   -1.5,   -1.4,   -1.4,   -1.3,   -1.2,   -1.1,   -1.0,   -0.9,   -0.9,   -1.2,   -1.1,   -1.1,   -1.1,   -1.2,   -1.2,   -1.3,   -1.2,   -1.2,   -1.2,   -1.0,   -1.0,   -1.0,   -1.0,   -1.0,   -1.0,   -0.9,   -1.1,   -1.1,   -1.2,   -1.2,   -1.2,   -1.1,   -1.1,   -1.1,   -1.0,   -1.0,   -1.0,   -1.0,   -0.9,   -0.8,   -0.9,   -0.8,   -0.7,   -0.7,   -0.7,  999.0,   -0.6,   -0.4,  999.0,  999.0,   -0.7,   -0.8
2008/06/09 00:10,   -2.9,  999.0,   -3.8,   -3.9,   -3.9,   -3.9,   -3.9,   -3.9,   -3.9,   -4.1,   -4.1,   -4.1,   -4.2,   -4.4,   -4.4,   -4.4,   -4.4,   -4.6,   -4.6,   -4.6,   -4.6,   -4.6,   -4.5,   -4.6,   -4.6,   -4.6,   -4.6,   -4.6,   -4.6,   -4.6,   -4.4,   -4.2,   -4.1,   -3.9,   -3.8,   -3.9,   -3.8,   -3.5,   -3.4,   -3.4,   -3.5,   -3.4,   -3.2,   -3.0,   -2.3,   -1.8,   -1.5,  999.0,   -1.5,   -1.3,   -1.2,   -1.2,   -1.1,   -1.0,   -1.0,   -1.1,   -1.2,   -1.3,   -1.3,   -1.2,   -1.2,   -1.2,   -1.2,   -1.1,   -1.1,   -1.1,   -1.0,   -1.0,   -1.0,   -1.0,   -0.9,   -1.0,   -0.9,   -0.9,   -1.0,   -1.0,   -1.0,   -1.0,   -0.9,   -1.0,   -0.9,   -0.9,   -0.9,   -0.8,   -0.8,   -0.7,  999.0,  999.0,   -0.9,   -0.9,   -0.9,   -0.9,   -0.9,   -0.8,   -0.9,   -0.8,   -0.7,   -0.5,   -0.5
2008/06/09 00:20,   -3.8,   -3.8,   -3.8,   -3.8,   -3.8,   -3.8,   -3.8,   -3.8,   -3.8,   -3.8,   -3.7,   -3.8,   -3.8,   -3.9,   -3.9,   -4.0,   -4.0,   -3.9,   -3.9,   -3.4,   -3.6,   -3.6,   -3.6,   -3.7,   -3.6,   -3.6,   -3.5,   -3.4,   -3.4,   -3.4,   -3.4,   -3.4,   -3.4,   -3.4,   -3.4,   -3.4,   -3.4,   -3.3,   -3.2,   -3.2,   -3.0,   -2.9,   -3.0,   -3.2,  999.0,  999.0,  999.0,   -1.6,   -1.5,   -1.4,   -1.3,   -1.3,   -1.3,   -1.3,   -1.3,   -1.3,   -1.2,   -1.2,   -1.2,   -1.2,   -1.1,   -1.1,   -1.0,   -1.0,   -1.0,   -1.0,   -0.9,   -0.9,   -0.9,   -0.8,   -0.8,   -0.8,   -0.8,   -0.8,   -0.9,   -1.0,   -1.1,   -1.1,   -1.1,   -1.1,   -1.1,   -1.0,   -0.9,   -0.9,   -0.9,   -0.8,   -0.8,   -0.8,   -0.7,   -0.6,   -0.7,   -0.7,   -0.7,   -0.6,   -0.6,   -0.5,   -0.8,   -0.7,  999.0
2008/06/09 00:30,   -2.3,   -3.1,   -3.0,   -2.9,   -3.1,   -3.3,   -3.5,   -3.4,   -3.6,   -3.6,   -3.5,   -3.5,   -3.6,   -3.5,   -3.6,   -3.3,   -3.7,   -3.6,   -3.6,   -3.6,   -3.6,   -3.6,   -3.6,   -3.2,  999.0,  999.0,   -4.0,   -4.0,   -4.5,   -4.3,   -4.8,   -4.8,   -4.6,   -4.7,   -4.7,   -4.6,   -4.4,   -4.3,   -4.4,   -4.5,   -4.6,   -4.4,   -4.4,   -3.6,  999.0,   -1.7,   -1.6,   -1.4,   -1.4,   -1.4,   -1.3,   -1.3,   -1.2,   -1.2,   -1.1,   -1.1,   -1.0,   -1.0,   -1.0,   -1.0,   -0.9,   -0.9,   -0.9,   -0.9,   -0.8,   -0.9,   -0.9,   -0.8,   -1.0,   -0.9,   -0.9,   -0.9,   -1.0,   -1.1,   -1.1,   -1.2,   -1.2,   -1.2,   -1.1,   -1.0,   -1.0,   -1.0,   -0.9,   -0.8,   -0.8,   -0.7,   -0.7,   -0.7,   -0.7,   -0.6,   -0.6,   -0.6,   -0.6,   -0.5,   -0.5,   -0.6,   -0.5,   -0.6,  999.0
2008/06/09 00:40,   -5.0,   -5.6,   -5.1,   -5.2,   -5.4,   -5.8,   -5.1,   -5.2,   -5.2,   -5.2,   -5.4,   -5.4,   -5.3,   -5.3,   -4.9,   -5.3,   -5.4,   -5.3,   -5.0,   -5.0,   -4.9,   -4.9,   -5.0,   -4.8,   -4.9,   -4.8,   -4.7,   -4.7,   -4.7,   -4.6,   -4.7,   -4.6,   -4.7,   -4.7,   -4.6,   -4.7,   -4.5,   -4.6,   -4.5,   -4.6,   -4.6,   -4.3,   -4.5,   -3.1,  999.0,   -1.5,   -1.3,   -1.2,   -1.1,   -1.1,   -1.1,   -1.1,   -1.0,   -1.0,   -1.0,   -1.0,   -1.0,   -1.1,   -1.1,   -1.1,   -1.1,   -1.1,   -1.1,   -1.1,   -1.1,   -1.1,   -1.0,   -1.0,   -1.0,   -1.0,   -0.9,   -0.9,   -0.9,   -0.9,   -0.9,   -0.9,   -0.9,   -0.8,   -0.8,   -0.8,   -0.8,   -0.8,   -0.8,   -0.8,   -0.8,   -0.7,   -0.7,   -0.6,   -0.7,   -0.7,   -0.7,   -0.6,   -0.7,   -0.9,   -0.7,  999.0,   -0.7,   -0.7,   -0.6
2008/06/09 00:50,   -4.7,   -4.7,   -4.7,   -4.6,   -4.7,   -4.6,   -4.6,   -4.6,   -4.6,   -4.6,   -4.6,   -4.7,   -4.7,   -4.7,   -4.6,   -4.6,   -4.5,   -4.4,   -4.4,   -4.4,   -4.3,   -4.3,   -4.2,   -4.2,   -4.2,   -4.0,   -4.0,   -4.0,   -3.9,   -3.9,   -3.8,   -3.9,   -3.9,   -3.8,   -3.7,   -3.9,   -3.9,   -4.1,   -4.2,   -4.2,   -4.1,   -4.1,   -4.0,   -2.9,  999.0,   -1.4,   -1.3,   -1.3,   -1.2,   -1.2,   -1.3,   -1.3,   -1.3,   -1.3,   -1.3,   -1.2,   -1.2,   -1.2,   -1.2,   -1.2,   -1.2,   -1.2,   -1.2,   -1.2,   -1.1,   -1.1,   -1.0,   -1.0,   -0.9,   -0.9,   -1.0,   -1.0,   -1.0,   -1.0,   -1.0,   -1.1,   -1.0,   -1.0,   -1.0,   -1.0,   -0.9,   -0.9,   -0.9,   -0.8,   -0.7,   -0.7,   -0.8,   -0.7,   -0.7,   -0.7,   -0.7,   -0.6,   -0.6,   -0.6,   -0.2,  999.0,   -0.4,  999.0,  999.0
2008/06/09 01:00,   -4.0,   -4.0,   -3.9,   -3.9,   -4.0,   -3.9,   -4.0,   -3.9,   -4.0,   -4.0,   -4.1,   -4.1,   -4.3,   -4.2,   -4.2,   -4.3,   -4.2,   -4.4,   -4.4,   -4.3,   -4.3,   -4.3,   -4.3,   -4.2,   -4.4,   -4.2,   -4.2,   -4.1,   -4.0,   -4.1,   -4.0,   -4.0,   -4.1,   -4.1,   -4.2,   -4.2,   -4.2,   -4.3,   -4.4,   -4.3,   -4.3,   -4.3,   -4.2,   -3.0,  999.0,   -1.7,   -1.7,   -1.5,   -1.4,   -1.3,   -1.3,   -1.3,   -1.3,   -1.3,   -1.2,   -1.2,   -1.2,   -1.2,   -1.2,   -1.1,   -1.1,   -1.1,   -1.1,   -1.1,   -1.1,   -1.0,   -1.0,   -0.9,   -0.9,   -0.8,   -0.8,   -0.9,   -0.9,   -0.9,   -0.9,   -0.9,   -0.9,   -0.9,   -0.9,   -0.9,   -0.8,   -0.8,   -0.7,   -0.7,   -0.7,   -0.6,   -0.6,   -0.6,   -0.6,   -0.6,   -0.5,   -0.4,   -0.4,  999.0,  999.0,  999.0,  999.0,  999.0,  999.0
2008/06/09 01:10,   -3.5,   -3.6,   -3.6,   -3.6,   -3.6,   -3.7,   -3.7,   -3.7,   -3.7,   -3.8,   -4.0,   -4.1,   -4.2,   -4.3,   -4.2,   -4.1,   -4.2,   -4.2,   -4.3,   -4.2,   -4.2,   -4.3,   -4.4,   -4.4,   -4.4,   -4.4,   -4.5,   -4.5,   -4.6,   -4.6,   -4.6,   -4.6,   -4.5,   -4.5,   -4.5,   -4.4,   -4.4,   -4.4,   -4.3,   -4.3,   -4.1,   -4.2,   -4.1,   -2.7,   -1.8,   -1.5,   -1.4,   -1.3,   -1.3,   -1.2,   -1.2,   -1.3,   -1.2,   -1.2,   -1.2,   -1.1,   -1.1,   -1.1,   -1.0,   -1.0,   -1.0,   -1.0,   -1.1,   -1.1,   -1.1,   -1.1,   -1.0,   -1.0,   -0.9,   -0.9,   -0.8,   -0.8,   -0.9,   -1.0,   -1.0,   -1.0,   -1.0,   -0.9,   -1.0,   -0.9,   -0.9,   -0.9,   -0.9,   -0.8,   -0.8,   -0.7,  999.0,   -0.7,  999.0,  999.0,  999.0,  999.0,  999.0,  999.0,  999.0,  999.0,  999.0,  999.0,  999.0
2008/06/09 01:20,   -3.6,   -3.8,   -3.6,   -3.6,   -3.6,   -3.6,   -3.7,   -3.8,   -4.0,   -4.0,   -4.1,   -4.1,   -4.3,   -4.3,   -4.3,   -4.3,   -4.3,   -4.4,   -4.4,   -4.4,   -4.4,   -4.4,   -4.4,   -4.5,   -4.5,   -4.4,   -4.3,   -4.4,   -4.3,   -4.4,   -4.3,   -4.4,   -4.3,   -4.3,   -4.4,   -4.5,   -4.3,   -4.4,   -4.3,   -4.3,   -4.2,   -4.1,   -3.8,   -2.5,   -1.8,   -1.6,   -1.5,   -1.4,   -1.4,   -1.4,   -1.4,   -1.4,   -1.3,   -1.3,   -1.2,   -1.2,   -1.1,   -1.1,   -1.0,   -1.0,   -0.9,   -1.0,   -1.0,   -1.0,   -1.0,   -1.0,   -0.9,   -0.9,   -0.8,   -0.8,   -0.7,   -0.7,   -0.8,   -0.9,   -0.9,   -0.8,   -0.8,   -0.8,   -0.8,   -0.8,   -0.8,   -0.8,   -0.8,   -0.8,   -0.7,   -0.6,  999.0,   -0.6,  999.0,  999.0,  999.0,  999.0,  999.0,  999.0,  999.0,  999.0,  999.0,  999.0,  999.0
2008/06/09 01:30,   -3.3,   -3.4,   -3.5,   -3.6,   -3.6,   -3.7,   -3.9,   -3.9,   -4.0,   -4.0,   -4.1,   -4.1,   -4.3,   -4.3,   -4.3,   -4.3,   -4.3,   -4.3,   -4.3,   -4.3,   -4.4,   -4.3,   -4.2,   -4.3,   -4.2,   -4.1,   -4.0,   -3.8,   -3.8,   -3.8,   -3.8,   -3.9,   -4.1,   -3.8,   -4.2,   -4.0,   -4.1,   -4.0,   -3.9,   -3.8,   -3.8,   -3.6,   -3.6,   -2.2,   -1.5,   -1.4,   -1.4,   -1.3,   -1.3,   -1.3,   -1.3,   -1.3,   -1.2,   -1.2,   -1.1,   -1.1,   -1.0,   -1.0,   -1.0,   -1.0,   -1.0,   -1.0,   -1.0,   -1.0,   -1.0,   -1.0,   -0.9,   -0.9,   -0.8,   -0.8,   -0.8,   -0.7,   -0.8,   -0.8,   -0.8,   -0.8,   -0.8,   -0.8,   -0.8,   -0.8,   -0.8,   -0.8,   -0.8,   -0.8,   -0.8,   -0.7,   -0.7,   -0.6,   -0.6,   -0.5,   -0.6,   -0.4,  999.0,  999.0,  999.0,  999.0,  999.0,  999.0,  999.0
2008/06/09 01:40,   -3.6,   -3.6,   -3.7,   -3.8,   -3.8,   -3.8,   -3.9,   -3.9,   -3.9,   -4.0,   -4.1,   -4.1,   -4.1,   -4.2,   -4.3,   -4.2,   -4.1,   -4.2,   -4.2,   -4.2,   -4.2,   -4.3,   -4.2,   -4.1,   -4.1,   -4.1,   -4.0,   -4.1,   -4.1,   -4.1,   -4.1,   -4.0,   -3.8,   -3.8,   -3.8,   -3.7,   -3.7,   -3.7,   -3.7,   -3.7,   -3.9,   -4.0,   -3.4,  999.0,   -1.5,   -1.3,   -1.3,   -1.3,   -1.2,   -1.2,   -1.1,   -1.1,   -1.1,   -1.1,   -1.1,   -1.0,   -1.0,   -1.0,   -1.0,   -1.0,   -1.0,   -0.9,   -0.9,   -0.9,   -0.9,   -0.9,   -0.9,   -0.8,   -0.8,   -0.8,   -0.7,   -0.7,   -0.7,   -0.8,   -0.8,   -0.9,   -0.8,   -0.8,   -0.8,   -0.8,   -0.8,   -0.8,   -0.8,   -0.7,   -0.6,   -0.6,   -0.6,   -0.5,   -0.5,   -0.5,  999.0,  999.0,  999.0,  999.0,  999.0,  999.0,  999.0,  999.0,  999.0
2008/06/09 01:50,   -3.6,   -3.5,   -3.5,   -3.6,   -3.7,   -3.6,   -3.8,   -3.8,   -3.9,   -4.0,   -4.0,   -4.0,   -4.0,   -4.1,   -4.2,   -4.1,   -4.1,   -4.1,   -4.1,   -4.0,   -4.0,   -4.1,   -3.9,   -3.8,   -3.9,   -3.7,   -3.6,   -3.6,   -3.7,   -3.7,   -3.6,   -3.7,   -3.7,   -3.8,   -3.9,   -3.8,   -4.1,   -3.9,   -4.0,   -3.9,   -3.9,   -3.6,   -3.2,   -2.1,   -1.3,   -1.1,   -1.1,   -1.1,   -1.1,   -1.1,   -1.1,   -1.2,   -1.2,   -1.2,   -1.2,   -1.1,   -1.1,   -1.1,   -1.1,   -1.1,   -1.1,   -1.1,   -1.1,   -1.1,   -1.1,   -1.0,   -1.0,   -1.0,   -0.9,   -0.8,   -0.8,   -0.7,   -0.8,   -0.9,   -1.0,   -1.0,   -1.0,   -1.0,   -1.0,   -1.0,  999.0,  999.0,  999.0,  999.0,  999.0,  999.0,  999.0,  999.0,  999.0,  999.0,  999.0,  999.0,  999.0,  999.0,  999.0,  999.0,  999.0,  999.0,  999.0
2008/06/09 02:00,   -2.4,   -3.3,   -3.7,   -3.7,   -3.7,   -3.6,   -3.7,   -3.7,   -3.9,   -3.9,   -3.9,   -4.0,   -3.9,   -4.0,   -4.0,   -3.9,   -3.8,   -3.9,   -3.8,   -3.8,   -3.6,   -3.6,   -3.6,   -3.6,   -3.4,   -3.5,   -3.6,   -3.5,   -3.4,   -3.5,   -3.6,   -3.5,   -3.5,   -3.4,   -3.4,   -3.3,   -3.3,   -3.1,   -3.0,   -2.9,   -2.8,   -2.7,   -2.7,   -2.3,   -1.4,   -1.1,   -1.1,   -1.1,   -1.1,   -1.1,   -1.1,   -1.1,   -1.1,   -1.1,   -1.2,   -1.2,   -1.2,   -1.2,   -1.1,   -1.1,   -1.1,   -1.1,   -1.0,   -1.0,   -1.0,   -0.9,   -0.9,   -0.9,   -0.8,   -0.7,   -0.7,   -0.8,   -1.0,   -1.1,   -1.2,   -1.3,   -1.2,   -1.3,   -1.2,   -1.1,   -1.1,  999.0,  999.0,  999.0,  999.0,  999.0,  999.0,  999.0,  999.0,  999.0,  999.0,  999.0,  999.0,  999.0,  999.0,  999.0,  999.0,  999.0,  999.0
2008/06/09 02:10,  999.0,  999.0,   -2.6,   -2.9,   -3.0,   -2.9,   -3.1,   -2.9,   -2.9,   -2.9,   -3.1,   -3.0,   -3.1,   -3.2,   -3.2,   -3.2,   -3.2,   -3.2,   -3.2,   -3.2,   -3.3,   -3.3,   -3.3,   -3.3,   -3.2,   -3.2,   -3.2,   -3.2,   -3.1,   -3.1,   -3.3,   -3.4,   -3.7,   -3.6,   -3.5,   -3.6,   -3.7,   -3.7,   -3.7,   -3.8,   -4.1,   -4.1,   -3.5,  999.0,  999.0,   -1.2,   -1.1,   -1.1,   -1.1,   -1.2,   -1.2,   -1.2,   -1.2,   -1.3,   -1.2,   -1.2,   -1.2,   -1.2,   -1.1,   -1.1,   -1.0,   -1.0,   -1.0,   -0.9,   -0.9,   -0.9,   -0.9,   -0.9,   -0.9,   -0.9,   -0.9,   -1.0,   -1.1,   -1.3,   -1.3,   -1.2,   -1.2,   -1.2,   -1.1,  999.0,  999.0,  999.0,  999.0,  999.0,  999.0,  999.0,  999.0,  999.0,  999.0,  999.0,  999.0,  999.0,  999.0,  999.0,  999.0,  999.0,  999.0,  999.0,  999.0
2008/06/09 02:20,  999.0,   -3.4,   -3.6,   -3.5,   -3.5,   -3.5,   -3.5,   -3.6,   -3.7,   -3.7,   -3.8,   -3.8,   -3.8,   -3.8,   -3.9,   -3.9,   -3.9,   -4.0,   -4.1,   -4.1,   -3.9,   -4.1,   -4.3,   -4.1,   -4.2,   -4.4,   -4.6,   -4.5,   -4.6,   -4.7,   -4.6,   -4.7,   -4.7,   -4.7,   -4.7,   -4.8,   -4.7,   -4.8,   -4.7,   -4.7,   -4.7,   -4.5,   -2.9,  999.0,  999.0,   -1.4,   -1.3,   -1.3,   -1.3,   -1.3,   -1.3,   -1.2,   -1.2,   -1.2,   -1.1,   -1.1,   -1.1,   -1.0,   -1.0,   -1.0,   -0.9,   -0.9,   -0.9,   -0.9,   -0.9,   -1.0,   -1.0,   -1.1,   -1.1,   -1.0,   -1.0,   -1.0,   -1.1,   -1.1,   -1.1,   -1.1,   -1.2,   -1.1,  999.0,  999.0,  999.0,  999.0,  999.0,  999.0,  999.0,  999.0,  999.0,  999.0,  999.0,  999.0,  999.0,  999.0,  999.0,  999.0,  999.0,  999.0,  999.0,  999.0,  999.0
2008/06/09 02:30,   -4.3,   -4.6,   -4.3,   -4.4,   -4.4,   -4.2,   -4.4,   -4.4,   -4.4,   -4.6,   -4.7,   -4.7,   -4.6,   -4.8,   -4.8,   -4.8,   -5.1,   -4.9,   -4.9,   -5.0,   -5.0,   -4.9,   -4.9,   -4.9,   -4.8,   -4.8,   -4.8,   -4.7,   -4.7,   -4.8,   -4.7,   -4.7,   -4.8,   -4.7,   -4.8,   -4.8,   -4.7,   -4.8,   -4.8,   -4.7,   -4.6,   -4.7,   -3.6,  999.0,  999.0,  999.0,   -1.3,   -1.3,   -1.2,   -1.1,   -1.1,   -1.1,   -1.1,   -1.1,   -1.1,   -1.1,   -1.1,   -1.1,   -1.1,   -1.1,   -1.0,   -1.0,   -1.1,   -1.1,   -1.1,   -1.1,   -1.1,   -1.0,   -1.0,   -0.9,   -0.9,   -0.7,   -0.9,   -1.0,   -1.0,   -1.0,   -1.0,   -1.0,   -1.0,   -1.0,   -1.0,   -1.0,   -0.9,   -0.8,   -0.9,  999.0,   -0.7,  999.0,   -0.5,  999.0,  999.0,  999.0,  999.0,  999.0,  999.0,  999.0,  999.0,  999.0,  999.0
2008/06/09 02:40,   -4.6,   -4.7,   -4.7,   -4.8,   -4.8,   -4.8,   -4.8,   -4.8,   -4.9,   -4.8,   -4.9,   -4.9,   -4.9,   -4.9,   -4.9,   -4.9,   -4.8,   -4.8,   -4.8,   -4.7,   -4.7,   -4.6,   -4.6,   -4.5,   -4.5,   -4.4,   -4.5,   -4.4,   -4.4,   -4.3,   -4.5,   -4.3,   -4.2,   -4.2,   -4.0,   -3.9,   -3.8,   -3.9,   -3.8,   -3.6,   -3.6,   -3.7,   -3.2,  999.0,  999.0,   -1.0,   -1.0,   -1.0,   -1.0,   -1.0,   -1.1,   -1.1,   -1.1,   -1.1,   -1.2,   -1.2,   -1.2,   -1.2,   -1.3,   -1.2,   -1.2,   -1.2,   -1.2,   -1.1,   -1.1,   -1.1,   -1.1,   -1.0,   -1.0,   -0.9,   -0.9,   -0.8,   -0.8,   -0.9,   -1.0,   -0.9,   -0.9,   -0.9,   -0.9,   -0.8,   -0.9,   -0.9,   -0.8,   -0.7,   -0.7,   -0.6,   -0.6,  999.0,  999.0,  999.0,  999.0,  999.0,  999.0,  999.0,  999.0,  999.0,  999.0,  999.0,  999.0
2008/06/09 02:50,   -3.7,   -3.6,   -3.8,   -3.7,   -3.6,   -3.6,   -3.6,   -3.5,   -3.5,   -3.6,   -3.6,   -3.6,   -3.5,   -3.5,   -3.5,   -3.4,   -3.4,   -3.3,   -3.2,   -3.2,   -3.2,   -3.1,   -3.0,   -3.0,   -3.0,   -2.9,   -2.8,   -2.8,   -2.8,   -2.8,   -2.7,   -2.7,   -2.7,   -2.7,   -2.7,   -2.8,   -2.8,   -2.9,   -3.0,   -3.0,   -3.1,   -3.1,   -3.2,   -2.0,  999.0,   -1.1,   -1.2,   -1.2,   -1.2,   -1.2,   -1.2,   -1.2,   -1.2,   -1.3,   -1.3,   -1.3,   -1.4,   -1.4,   -1.4,   -1.3,   -1.2,   -1.1,   -1.1,   -1.1,   -1.0,   -1.0,   -1.0,   -0.9,   -0.9,   -0.9,   -0.9,   -0.9,   -0.9,   -0.9,   -0.9,   -0.9,   -0.9,   -0.9,   -1.0,   -0.9,   -1.0,   -1.0,   -1.0,   -1.1,   -0.9,   -1.0,  999.0,  999.0,  999.0,  999.0,  999.0,  999.0,  999.0,  999.0,  999.0,  999.0,  999.0,  999.0,  999.0
2008/06/09 03:00,   -0.0,    0.0,   -0.0,   -0.0,  999.0,   -0.0,   -0.0,   -0.0,  999.0,    0.0,  999.0,  999.0,  999.0,   -2.0,   -2.2,   -2.3,   -2.3,   -2.3,   -2.3,   -2.4,   -2.4,   -2.5,   -2.5,   -2.6,   -2.7,   -2.8,   -2.8,   -2.9,   -2.9,   -3.0,   -3.1,   -3.1,   -3.2,   -3.2,   -3.2,   -3.3,   -3.3,   -3.3,   -3.3,   -3.3,   -3.4,   -3.4,   -3.3,  999.0,  999.0,   -1.2,   -1.3,   -1.4,   -1.4,   -1.4,   -1.4,   -1.5,   -1.6,   -1.6,   -1.6,   -1.6,   -1.6,   -1.5,   -1.4,   -1.4,   -1.2,   -1.1,   -1.1,   -1.1,   -1.1,   -1.1,   -1.1,   -1.1,   -1.1,   -1.0,   -1.0,   -1.0,   -1.0,   -1.0,   -1.0,   -1.0,   -1.0,   -1.0,   -1.0,   -1.0,   -1.0,   -0.9,   -0.9,   -0.9,   -0.8,   -0.9,   -0.9,   -0.9,  999.0,  999.0,  999.0,  999.0,  999.0,  999.0,  999.0,  999.0,  999.0,  999.0,  999.0
2008/06/09 03:10,   -0.0,   -0.0,    0.0,   -0.0,  999.0,   -0.0,   -0.0,   -0.8,   -1.1,   -2.7,  999.0,   -2.3,   -2.3,   -2.5,   -2.5,   -2.7,   -2.7,   -3.1,   -3.2,   -3.2,   -3.2,   -3.2,   -3.2,   -3.2,   -3.3,   -3.3,   -3.3,   -3.3,   -3.4,   -3.4,   -3.4,   -3.3,   -3.3,   -3.5,   -3.4,   -3.5,   -3.6,   -3.7,   -4.0,   -3.7,   -3.8,   -3.8,   -3.5,  999.0,  999.0,   -1.6,   -1.5,   -1.5,   -1.5,   -1.4,   -1.4,   -1.3,   -1.3,   -1.3,   -1.2,   -1.2,   -1.1,   -1.1,   -1.1,   -1.1,   -1.1,   -1.1,   -1.1,   -1.0,   -1.0,   -1.0,   -1.0,   -1.0,   -1.0,   -1.0,   -1.0,   -1.0,   -1.0,   -1.0,   -1.0,   -1.0,   -1.0,   -1.0,   -1.0,   -1.0,   -0.9,   -1.0,  999.0,  999.0,   -0.7,   -0.7,  999.0,   -0.6,  999.0,  999.0,  999.0,  999.0,  999.0,  999.0,  999.0,  999.0,  999.0,  999.0,  999.0
2008/06/09 03:20,  999.0,  999.0,  999.0,  999.0,   -4.4,   -4.1,   -3.6,   -4.1,   -3.4,   -3.4,   -3.5,   -3.3,   -3.1,   -3.3,   -3.2,   -3.5,   -3.5,   -3.6,   -3.6,   -3.7,   -3.7,   -3.8,   -4.1,   -4.1,   -4.3,   -4.3,   -4.4,   -4.4,   -4.5,   -4.6,   -4.5,   -4.5,   -4.6,   -4.7,   -4.7,   -4.9,   -5.0,   -5.0,   -5.0,   -4.9,   -4.8,   -4.7,   -3.7,  999.0,  999.0,   -1.4,   -1.4,   -1.4,   -1.3,   -1.3,   -1.2,   -1.2,   -1.2,   -1.2,   -1.2,   -1.1,   -1.1,   -1.2,   -1.1,   -1.1,   -1.1,   -1.1,   -1.1,   -1.0,   -1.0,   -1.0,   -1.0,   -1.0,   -1.0,   -0.9,   -0.9,   -0.9,   -0.9,   -0.9,   -0.9,   -0.9,   -0.9,   -0.9,   -0.8,   -0.8,   -0.8,   -0.8,   -0.7,   -0.8,   -0.7,   -0.7,   -0.6,   -0.6,   -0.3,  999.0,  999.0,  999.0,  999.0,  999.0,  999.0,  999.0,  999.0,  999.0,  999.0
2008/06/09 03:30,   -4.6,   -4.8,   -4.8,   -4.8,   -4.7,   -4.7,   -4.6,   -4.6,   -4.6,   -4.6,   -4.6,   -4.6,   -4.6,   -4.6,   -4.5,   -4.6,   -4.5,   -4.5,   -4.6,   -4.6,   -4.7,   -4.7,   -4.7,   -4.7,   -4.8,   -4.8,   -4.7,   -4.7,   -4.6,   -4.6,   -4.6,   -4.7,   -4.6,   -4.5,   -4.5,   -4.6,   -4.4,   -4.4,   -4.4,   -4.4,   -4.3,   -4.5,   -3.5,  999.0,  999.0,   -1.4,   -1.3,   -1.4,   -1.3,   -1.3,   -1.2,   -1.2,   -1.2,   -1.2,   -1.2,   -1.1,   -1.1,   -1.2,   -1.1,   -1.1,   -1.1,   -1.1,   -1.1,   -1.0,   -1.0,   -1.0,   -1.0,   -1.0,   -0.9,   -0.9,   -0.9,   -0.9,   -0.9,   -0.9,   -0.8,   -0.8,   -0.8,   -0.8,   -0.8,   -0.7,   -0.8,   -0.7,   -0.7,   -0.6,   -0.6,   -0.7,   -0.5,  999.0,  999.0,  999.0,  999.0,  999.0,  999.0,  999.0,  999.0,  999.0,  999.0,  999.0,  999.0
2008/06/09 03:40,   -4.0,   -4.1,   -4.1,   -4.1,   -4.2,   -4.2,   -4.2,   -4.2,   -4.3,   -4.3,   -4.3,   -4.3,   -4.4,   -4.4,   -4.4,   -4.4,   -4.4,   -4.4,   -4.4,   -4.5,   -4.5,   -4.5,   -4.5,   -4.6,   -4.6,   -4.6,   -4.6,   -4.5,   -4.6,   -4.5,   -4.5,   -4.5,   -4.4,   -4.4,   -4.4,   -4.3,   -4.3,   -4.3,   -4.3,   -4.3,   -4.2,   -4.2,   -2.9,  999.0,   -1.5,   -1.4,   -1.3,   -1.3,   -1.2,   -1.1,   -1.1,   -1.2,   -1.2,   -1.2,   -1.1,   -1.1,   -1.1,   -1.1,   -1.1,   -1.1,   -1.0,   -1.0,   -1.0,   -1.0,   -1.0,   -1.0,   -0.9,   -0.9,   -0.8,   -0.8,   -0.7,   -0.7,   -0.7,   -0.7,   -0.7,   -0.7,   -0.7,   -0.7,   -0.7,   -0.7,   -0.7,   -0.7,   -0.7,   -0.7,   -0.6,  999.0,  999.0,  999.0,  999.0,  999.0,  999.0,  999.0,  999.0,  999.0,  999.0,  999.0,  999.0,  999.0,  999.0
2008/06/09 03:50,   -3.2,   -3.4,   -3.4,   -3.4,   -3.4,   -3.4,   -3.5,   -3.5,   -3.6,   -3.6,   -3.7,   -3.6,   -3.8,   -4.0,   -4.0,   -4.0,   -4.1,   -4.3,   -4.3,   -4.4,   -4.5,   -4.5,   -4.4,   -4.5,   -4.4,   -4.4,   -4.4,   -4.3,   -4.2,   -4.0,   -3.9,   -3.8,   -3.7,   -3.6,   -3.6,   -3.5,   -3.4,   -3.4,   -3.4,   -3.3,   -3.3,   -3.4,   -2.9,  999.0,   -1.5,   -1.4,   -1.4,   -1.3,   -1.3,   -1.3,   -1.2,   -1.2,   -1.2,   -1.2,   -1.2,   -1.2,   -1.1,   -1.1,   -1.1,   -1.0,   -1.0,   -1.0,   -0.9,   -0.9,   -0.9,   -0.9,   -0.9,   -0.8,   -0.8,   -0.7,   -0.7,   -0.7,   -0.7,   -0.7,   -0.7,   -0.7,   -0.7,   -0.7,   -0.7,   -0.6,  999.0,  999.0,  999.0,  999.0,  999.0,   -0.8,  999.0,  999.0,  999.0,  999.0,  999.0,  999.0,  999.0,  999.0,  999.0,  999.0,  999.0,  999.0,  999.0
2008/06/09 04:00,   -2.7,   -3.0,   -3.1,   -3.2,   -3.3,   -3.4,   -3.5,   -3.6,   -3.5,   -3.6,   -3.8,   -3.6,   -3.6,   -3.7,   -3.6,   -3.6,   -3.5,   -3.5,   -3.4,   -3.4,   -3.4,   -3.4,   -3.3,   -3.3,   -3.2,   -3.2,   -3.2,   -3.2,   -3.1,   -3.1,   -3.1,   -3.0,   -3.0,   -3.0,   -3.0,   -2.9,   -2.8,   -2.8,   -2.7,   -2.8,   -2.8,   -2.9,   -2.9,   -2.4,   -1.6,   -1.4,   -1.4,   -1.3,   -1.3,   -1.3,   -1.3,   -1.3,   -1.2,   -1.2,   -1.1,   -1.1,   -1.0,   -1.0,   -1.0,   -1.0,   -1.0,   -1.0,   -0.9,   -0.9,   -0.9,   -0.9,   -0.9,   -0.8,   -0.7,  999.0,   -0.7,   -0.7,   -0.7,   -0.8,   -0.9,  999.0,  999.0,  999.0,   -0.9,   -0.8,   -0.8,   -0.8,   -0.8,   -0.8,   -0.8,   -0.7,  999.0,  999.0,  999.0,  999.0,  999.0,  999.0,  999.0,  999.0,  999.0,  999.0,  999.0,  999.0,  999.0
2008/06/09 04:10,    0.1,    0.0,    0.0,  999.0,  999.0,   -0.7,   -2.1,  999.0,   -2.7,   -2.1,   -2.4,   -2.7,   -2.7,   -2.7,   -2.8,   -2.7,   -2.7,   -2.7,   -2.8,   -2.7,   -2.7,   -2.7,   -2.7,   -2.7,   -2.7,   -2.8,   -2.9,   -2.7,   -2.8,   -2.6,   -2.6,   -3.2,   -3.1,   -3.2,   -3.3,   -3.3,   -3.5,   -3.4,   -3.6,   -3.5,   -3.5,   -3.5,   -3.7,   -2.7,  999.0,   -1.5,   -1.4,   -1.3,   -1.3,   -1.3,   -1.3,   -1.2,   -1.2,   -1.1,   -1.0,   -1.0,   -1.0,   -1.1,   -1.0,   -1.0,   -1.0,   -0.9,   -0.9,   -0.9,   -0.9,   -1.0,   -0.9,   -0.9,   -0.9,   -0.9,   -0.8,   -0.9,   -0.9,   -0.9,   -0.9,   -0.9,   -0.9,   -0.9,   -0.8,   -0.8,   -0.8,   -0.9,  999.0,  999.0,  999.0,  999.0,  999.0,  999.0,  999.0,  999.0,  999.0,  999.0,  999.0,  999.0,  999.0,  999.0,  999.0,  999.0,  999.0
2008/06/09 04:20,    0.0,   -1.9,   -4.1,   -4.1,   -4.2,   -3.6,   -4.1,   -4.0,   -3.5,   -3.4,   -3.5,   -3.3,   -4.2,   -4.1,   -4.2,   -4.2,   -4.3,   -4.2,   -4.2,   -4.2,   -4.2,   -4.2,   -4.2,   -4.1,   -4.0,   -4.1,   -4.0,   -4.1,   -4.1,   -4.0,   -4.1,   -4.1,   -4.3,   -4.2,   -4.0,   -3.9,   -3.9,   -3.9,   -3.8,   -3.6,   -4.0,   -4.0,   -4.0,  999.0,  999.0,   -1.5,   -1.4,   -1.4,   -1.3,   -1.3,   -1.2,   -1.2,   -1.2,   -1.1,   -1.1,   -1.2,   -1.2,   -1.2,   -1.2,   -1.1,   -1.1,   -1.1,   -1.0,   -1.0,   -1.0,   -1.0,   -1.0,   -0.9,   -0.9,   -0.9,   -0.9,   -0.9,   -0.9,   -0.9,   -0.9,   -1.0,   -0.9,   -1.0,   -1.0,   -1.0,   -1.0,   -1.0,   -0.9,   -0.9,   -0.9,   -0.9,  999.0,  999.0,  999.0,  999.0,  999.0,  999.0,  999.0,  999.0,  999.0,  999.0,  999.0,  999.0,  999.0
2008/06/09 04:30,   -3.5,   -3.5,   -3.5,   -3.5,   -3.5,   -3.5,   -3.6,   -3.6,   -3.7,   -3.7,   -3.8,   -3.8,   -3.9,   -3.9,   -3.9,   -4.0,   -3.9,   -4.0,   -3.9,   -3.9,   -3.9,   -3.9,   -3.9,   -4.0,   -4.0,   -4.0,   -4.0,   -4.0,   -4.2,   -4.1,   -4.2,   -4.1,   -4.0,   -3.9,   -4.0,   -4.0,   -4.0,   -4.0,   -4.1,   -4.0,   -4.0,   -4.0,   -3.9,  999.0,  999.0,   -1.3,   -1.3,   -1.3,   -1.3,   -1.3,   -1.3,   -1.3,   -1.3,   -1.3,   -1.2,   -1.2,   -1.2,   -1.2,   -1.2,   -1.1,   -1.1,   -1.1,   -1.1,   -1.1,   -1.0,   -1.0,   -1.0,   -1.0,   -0.9,   -0.9,   -0.9,   -0.9,   -1.0,   -1.0,   -1.0,   -1.0,   -1.0,   -1.0,   -1.0,   -1.0,   -1.0,   -0.8,   -1.0,  999.0,  999.0,  999.0,  999.0,  999.0,  999.0,  999.0,  999.0,  999.0,  999.0,  999.0,  999.0,  999.0,  999.0,  999.0,  999.0
2008/06/09 04:40,   -2.7,   -3.2,   -3.3,   -3.2,   -3.3,   -3.3,   -3.3,   -3.4,   -3.5,   -3.5,   -3.6,   -3.7,   -3.7,   -3.8,   -3.8,   -3.9,   -3.9,   -4.0,   -4.0,   -3.9,   -3.9,   -4.0,   -3.9,   -3.9,   -3.9,   -3.9,   -3.8,   -3.9,   -3.8,   -3.9,   -3.9,   -3.8,   -3.7,   -3.7,   -3.6,   -3.6,   -3.5,   -3.4,   -3.3,   -3.1,   -3.1,   -3.1,   -3.3,   -2.2,   -1.5,   -1.3,   -1.3,   -1.3,   -1.3,   -1.4,   -1.3,   -1.3,   -1.3,   -1.3,   -1.2,   -1.2,   -1.2,   -1.2,   -1.2,   -1.2,   -1.1,   -1.1,   -1.1,   -1.1,   -1.0,   -1.0,   -1.0,   -1.0,   -1.0,   -1.0,   -0.9,   -1.0,   -1.0,   -1.0,   -1.1,   -1.1,   -1.1,   -1.2,   -1.1,   -1.1,   -1.1,   -1.1,   -1.1,   -1.1,   -1.0,   -1.0,   -0.9,   -1.0,   -0.7,  999.0,  999.0,  999.0,  999.0,  999.0,  999.0,  999.0,  999.0,  999.0,  999.0
2008/06/09 04:50,  999.0,   -2.7,   -2.9,   -3.0,   -3.0,   -3.0,   -3.1,   -3.1,   -3.2,   -3.2,   -3.3,   -3.3,   -3.4,   -3.4,   -3.4,   -3.4,   -3.4,   -3.4,   -3.4,   -3.3,   -3.3,   -3.3,   -3.3,   -3.3,   -3.2,   -3.2,   -3.2,   -3.2,   -3.2,   -3.5,   -3.5,   -3.4,   -3.3,   -3.1,   -3.5,   -3.9,   -4.0,   -4.0,   -4.1,   -4.0,   -4.1,   -4.1,  999.0,   -2.7,  999.0,  999.0,   -1.3,   -1.2,   -1.2,   -1.2,   -1.2,   -1.2,   -1.2,   -1.2,   -1.2,   -1.2,   -1.2,   -1.2,   -1.2,   -1.1,   -1.2,   -1.1,   -1.1,   -1.1,   -1.1,   -1.0,   -1.0,   -1.0,   -1.0,   -1.0,   -1.0,   -1.1,   -1.1,   -1.1,   -1.2,   -1.2,   -1.2,   -1.2,   -1.2,   -1.2,   -1.2,   -1.2,   -1.1,   -1.0,   -1.1,   -1.0,   -0.9,  999.0,  999.0,  999.0,  999.0,  999.0,  999.0,  999.0,  999.0,  999.0,  999.0,  999.0,  999.0
2008/06/09 05:00,  999.0,   -3.3,   -2.8,   -3.2,   -3.3,   -3.4,   -3.5,   -3.5,   -3.3,   -3.4,   -3.3,   -3.3,   -3.3,   -4.0,   -4.4,   -4.6,   -4.6,   -4.5,   -4.4,   -4.5,   -4.5,   -4.6,   -4.5,   -4.6,   -4.5,   -4.4,   -4.3,   -4.4,   -4.4,   -4.1,   -4.3,   -4.3,   -4.2,   -4.2,   -4.2,   -4.2,   -4.1,   -4.0,   -4.0,   -3.9,   -3.9,   -3.8,   -3.6,   -3.3,   -2.0,   -1.3,   -1.2,   -1.3,   -1.3,   -1.2,   -1.2,   -1.3,   -1.3,   -1.3,   -1.2,   -1.3,   -1.3,   -1.3,   -1.2,   -1.2,   -1.2,   -1.2,   -1.2,   -1.2,   -1.2,   -1.2,   -1.1,   -1.1,   -1.1,   -1.1,   -1.2,   -1.2,   -1.3,   -1.3,   -1.4,   -1.4,   -1.4,   -1.4,   -1.3,   -1.3,   -1.2,   -1.1,   -1.3,   -1.2,   -1.3,  999.0,   -1.1,   -1.3,  999.0,  999.0,  999.0,  999.0,  999.0,  999.0,  999.0,  999.0,  999.0,  999.0,  999.0
2008/06/09 05:10,   -2.4,   -3.4,   -3.5,   -3.5,   -3.5,   -3.5,   -3.6,   -3.7,   -3.7,   -3.7,   -3.6,   -3.6,   -3.7,   -3.7,   -3.6,   -3.7,   -3.7,   -3.7,   -3.7,   -3.6,   -3.6,   -3.6,   -3.6,   -3.5,   -3.5,   -3.4,   -3.4,   -3.3,   -3.3,   -3.4,   -3.6,   -3.9,   -4.1,   -4.2,   -4.0,   -3.9,   -4.2,   -4.5,   -4.7,   -4.9,   -4.9,   -4.8,   -5.0,   -4.1,  999.0,  999.0,   -1.3,   -1.4,   -1.3,   -1.3,   -1.3,   -1.3,   -1.3,   -1.3,   -1.3,   -1.3,   -1.3,   -1.3,   -1.3,   -1.3,   -1.3,   -1.2,   -1.2,   -1.2,   -1.1,   -1.1,   -1.1,   -1.1,   -1.1,   -1.2,   -1.2,   -1.3,   -1.3,   -1.3,   -1.3,   -1.3,   -1.2,   -1.2,   -1.1,   -1.1,   -1.1,   -1.1,   -1.0,   -1.1,   -1.0,  999.0,   -0.8,  999.0,  999.0,  999.0,  999.0,  999.0,  999.0,  999.0,  999.0,  999.0,  999.0,  999.0,  999.0
2008/06/09 05:20,  999.0,   -2.2,  999.0,   -3.4,   -3.8,   -3.1,   -3.2,   -3.3,   -3.3,   -3.3,   -3.6,   -3.3,   -3.4,   -3.3,   -3.6,   -3.7,   -3.6,   -3.6,   -3.7,   -3.6,   -3.7,   -3.7,   -3.9,   -4.1,   -4.2,   -4.1,   -4.4,   -4.4,   -4.5,   -4.5,   -4.6,   -4.9,   -5.0,   -5.0,   -4.9,   -4.8,   -4.9,   -4.8,   -4.8,   -4.6,   -4.5,   -4.5,   -4.4,   -3.2,  999.0,   -1.4,   -1.4,   -1.4,   -1.4,   -1.4,   -1.4,   -1.4,   -1.4,   -1.4,   -1.4,   -1.4,   -1.4,   -1.4,   -1.4,   -1.4,   -1.4,   -1.3,   -1.3,   -1.3,   -1.3,   -1.3,   -1.2,   -1.2,   -1.2,   -1.2,   -1.3,   -1.3,   -1.2,   -1.2,   -1.3,   -1.2,   -1.2,   -1.2,   -1.2,   -1.1,   -1.1,   -0.9,   -0.9,   -0.7,   -1.0,   -1.1,   -1.0,   -0.8,   -0.8,   -0.9,  999.0,  999.0,  999.0,  999.0,  999.0,  999.0,  999.0,  999.0,  999.0
2008/06/09 05:30,   -3.4,   -4.0,   -4.1,   -4.2,   -4.3,   -4.3,   -4.4,   -4.4,   -4.3,   -4.3,   -4.4,   -4.3,   -4.3,   -4.3,   -4.3,   -4.2,   -4.2,   -4.2,   -4.2,   -4.2,   -4.1,   -4.1,   -3.9,   -3.9,   -3.9,   -3.8,   -3.9,   -3.9,   -3.9,   -3.9,   -3.9,   -4.0,   -4.0,   -3.8,   -3.7,   -3.7,   -3.8,   -3.7,   -3.7,   -3.7,   -3.6,   -3.6,   -3.6,   -2.9,  999.0,   -1.5,   -1.5,   -1.5,   -1.5,   -1.5,   -1.5,   -1.5,   -1.6,   -1.6,   -1.6,   -1.5,   -1.4,   -1.4,   -1.4,   -1.4,   -1.3,   -1.3,   -1.3,   -1.2,   -1.2,   -1.2,   -1.2,   -1.2,   -1.2,   -1.2,   -1.2,   -1.2,   -1.2,   -1.2,   -1.2,   -1.2,   -1.2,   -1.3,   -1.2,   -1.2,   -1.1,   -1.1,   -1.1,   -1.1,   -1.1,   -0.9,   -1.0,   -1.0,   -1.1,  999.0,  999.0,  999.0,  999.0,  999.0,  999.0,  999.0,  999.0,  999.0,  999.0
2008/06/09 05:40,   -2.5,   -2.6,   -3.0,   -3.1,   -3.0,   -3.0,   -3.2,   -3.3,   -3.3,   -3.4,   -3.4,   -3.4,   -3.5,   -3.7,   -3.6,   -3.7,   -3.7,   -3.7,   -3.8,   -3.9,   -3.9,   -3.9,   -4.0,   -4.0,   -4.0,   -3.8,   -3.8,   -3.8,   -3.7,   -3.9,   -4.0,   -4.0,   -4.0,   -4.0,   -4.0,   -4.0,   -4.1,   -4.0,   -4.0,   -4.0,   -4.0,   -4.0,   -3.8,   -2.8,   -1.9,   -1.8,   -1.7,   -1.7,   -1.7,   -1.6,   -1.6,   -1.6,   -1.6,   -1.6,   -1.5,   -1.5,   -1.5,   -1.5,   -1.4,   -1.4,   -1.4,   -1.3,   -1.3,   -1.2,   -1.2,   -1.2,   -1.2,   -1.2,   -1.2,   -1.2,   -1.2,   -1.2,   -1.2,   -1.2,   -1.3,   -1.3,   -1.3,   -1.2,   -1.2,   -1.1,   -1.1,   -1.1,   -1.1,   -1.2,   -1.2,   -1.1,   -1.0,   -0.9,  999.0,  999.0,  999.0,  999.0,  999.0,  999.0,  999.0,  999.0,  999.0,  999.0,  999.0
2008/06/09 05:50,   -2.5,   -3.4,   -3.4,   -3.5,   -3.5,   -3.5,   -3.5,   -3.5,   -3.5,   -3.6,   -3.7,   -3.7,   -3.8,   -3.9,   -4.0,   -4.1,   -4.1,   -4.1,   -4.1,   -4.2,   -4.1,   -4.0,   -4.0,   -4.0,   -3.9,   -3.8,   -3.8,   -3.9,   -4.0,   -4.2,   -4.4,   -4.3,   -4.2,   -4.1,   -4.1,   -4.3,   -4.2,   -4.2,   -4.2,   -4.2,   -4.2,   -4.1,   -4.0,   -2.6,  999.0,   -1.5,   -1.5,   -1.5,   -1.5,   -1.5,   -1.5,   -1.4,   -1.4,   -1.4,   -1.4,   -1.5,   -1.4,   -1.4,   -1.4,   -1.4,   -1.4,   -1.3,   -1.3,   -1.2,   -1.2,   -1.2,   -1.2,   -1.2,   -1.2,   -1.2,   -1.3,   -1.2,   -1.3,   -1.3,   -1.3,   -1.3,   -1.3,   -1.3,   -1.3,   -1.3,   -1.3,   -1.4,   -1.3,   -1.3,   -1.2,   -1.1,   -1.0,   -1.0,   -1.0,   -0.9,   -0.7,  999.0,  999.0,  999.0,  999.0,  999.0,  999.0,  999.0,  999.0
2008/06/09 06:00,  999.0,   -3.3,   -3.4,   -3.4,   -3.4,   -3.5,   -3.4,   -3.5,   -3.6,   -3.5,   -3.7,   -3.7,   -3.7,   -3.7,   -3.7,   -3.8,   -3.9,   -4.0,   -4.0,   -4.1,   -4.0,   -3.9,   -3.8,   -3.9,   -3.9,   -3.9,   -4.2,   -4.1,   -4.1,   -4.0,   -4.0,   -4.1,   -4.2,   -4.3,   -4.3,   -4.3,   -4.2,   -4.3,   -4.5,   -4.5,   -4.5,   -4.5,   -3.7,  999.0,  999.0,   -1.8,   -1.7,   -1.7,   -1.6,   -1.6,   -1.6,   -1.5,   -1.5,   -1.5,   -1.5,   -1.5,   -1.5,   -1.5,   -1.5,   -1.4,   -1.4,   -1.4,   -1.4,   -1.4,   -1.4,   -1.4,   -1.3,   -1.3,   -1.3,   -1.3,   -1.3,   -1.3,   -1.3,   -1.3,   -1.3,   -1.3,   -1.4,   -1.4,   -1.4,   -1.3,   -1.2,   -1.1,   -1.1,   -1.0,   -1.0,   -1.0,   -0.9,   -0.9,   -0.9,   -0.9,   -1.0,  999.0,  999.0,  999.0,  999.0,  999.0,  999.0,  999.0,  999.0
2008/06/09 06:10,   -3.3,   -3.7,   -3.9,   -3.9,   -3.4,   -3.2,   -3.2,   -3.4,   -3.4,   -3.5,   -3.6,   -3.7,   -3.9,   -3.9,   -4.2,   -4.2,   -4.3,   -4.3,   -4.4,   -4.4,   -4.3,   -4.4,   -4.4,   -4.3,   -4.4,   -4.4,   -4.4,   -4.4,   -4.4,   -4.3,   -4.4,   -4.5,   -4.5,   -4.6,   -4.6,   -4.8,   -4.7,   -4.9,   -5.0,   -5.2,   -4.9,   -4.6,  999.0,  999.0,  999.0,  999.0,   -1.6,   -1.5,   -1.5,   -1.4,   -1.4,   -1.4,   -1.5,   -1.4,   -1.5,   -1.4,   -1.4,   -1.4,   -1.4,   -1.4,   -1.4,   -1.4,   -1.4,   -1.4,   -1.4,   -1.4,   -1.3,   -1.3,   -1.3,   -1.2,   -1.3,   -1.3,   -1.3,   -1.3,   -1.3,   -1.3,   -1.3,   -1.2,   -1.2,   -1.1,   -1.1,   -1.0,   -1.0,   -1.0,   -1.0,   -1.0,   -1.0,   -1.0,  999.0,  999.0,   -1.0,  999.0,  999.0,  999.0,  999.0,  999.0,  999.0,  999.0,  999.0
2008/06/09 06:20,   -3.7,   -3.6,   -3.7,   -3.9,   -3.9,   -3.9,   -3.9,   -4.1,   -4.1,   -4.1,   -4.2,   -4.3,   -4.4,   -4.4,   -4.5,   -4.5,   -4.4,   -4.4,   -4.4,   -4.4,   -4.4,   -4.4,   -4.4,   -4.4,   -4.4,   -4.5,   -4.5,   -4.6,   -4.6,   -4.6,   -4.7,   -4.7,   -4.8,   -4.8,   -4.9,   -4.8,   -5.0,   -5.1,   -5.3,   -5.3,   -5.2,   -5.0,   -3.4,  999.0,  999.0,   -1.6,   -1.5,   -1.5,   -1.5,   -1.5,   -1.5,   -1.6,   -1.6,   -1.7,   -1.7,   -1.7,   -1.7,   -1.7,   -1.7,   -1.7,   -1.6,   -1.5,   -1.5,   -1.4,   -1.4,   -1.4,   -1.3,   -1.3,   -1.3,   -1.2,   -1.3,   -1.3,   -1.3,   -1.3,   -1.2,   -1.2,   -1.2,   -1.2,   -1.2,   -1.2,   -1.1,   -1.1,   -1.1,   -1.1,   -1.0,   -1.0,   -1.0,   -1.0,   -1.0,   -0.9,  999.0,  999.0,  999.0,  999.0,  999.0,  999.0,  999.0,  999.0,  999.0
2008/06/09 06:30,   -3.6,   -3.4,   -3.6,   -3.8,   -4.0,   -4.0,   -4.0,   -4.1,   -4.1,   -4.1,   -4.1,   -4.2,   -4.2,   -4.3,   -4.2,   -4.2,   -4.2,   -4.2,   -4.2,   -4.2,   -4.1,   -4.1,   -3.9,   -3.9,   -3.9,   -4.0,   -4.0,   -4.2,   -4.3,   -4.4,   -4.3,   -4.2,   -4.2,   -4.2,   -4.2,   -4.2,   -4.2,   -4.3,   -4.4,   -4.4,   -4.2,   -4.0,  999.0,  999.0,  999.0,   -1.5,   -1.5,   -1.6,   -1.6,   -1.6,   -1.7,   -1.6,   -1.6,   -1.6,   -1.6,   -1.6,   -1.5,   -1.5,   -1.4,   -1.4,   -1.4,   -1.3,   -1.2,   -1.2,   -1.2,   -1.2,   -1.2,   -1.2,   -1.1,   -1.2,   -1.2,   -1.2,   -1.2,   -1.2,   -1.1,   -1.1,   -1.1,   -1.1,   -1.0,   -1.0,   -1.1,   -1.0,   -1.0,   -1.0,   -0.9,   -1.0,   -0.9,   -1.0,   -1.0,   -0.8,   -0.8,   -0.9,   -0.8,   -0.8,   -0.8,   -0.7,   -0.6,   -0.5,  999.0
2008/06/09 06:40,   -2.6,   -2.9,   -3.1,   -3.1,   -3.1,   -3.3,   -3.4,   -3.5,   -3.6,   -3.7,   -3.7,   -3.8,   -3.9,   -4.0,   -4.1,   -4.0,   -3.9,   -3.9,   -3.9,   -3.8,   -3.8,   -3.7,   -3.7,   -3.6,   -3.6,   -3.7,   -3.7,   -3.8,   -4.1,   -4.1,   -4.3,   -4.0,   -3.9,   -3.8,   -3.7,   -3.8,   -3.9,   -3.9,   -3.9,   -3.9,   -3.9,   -3.7,  999.0,  999.0,  999.0,   -1.7,   -1.7,   -1.7,   -1.7,   -1.6,   -1.6,   -1.5,   -1.5,   -1.5,   -1.6,   -1.6,   -1.6,   -1.6,   -1.5,   -1.3,   -1.3,   -1.2,   -1.2,   -1.1,   -1.1,   -1.1,   -1.1,   -1.0,   -1.0,   -1.0,   -1.0,   -1.1,   -1.0,   -1.0,   -1.0,   -1.0,   -1.0,   -1.0,   -1.0,   -1.0,   -0.9,   -0.9,   -0.9,   -0.9,   -0.8,   -0.7,  999.0,  999.0,   -0.7,   -0.8,  999.0,  999.0,  999.0,  999.0,  999.0,  999.0,  999.0,  999.0,  999.0
2008/06/09 06:50,  999.0,   -3.3,   -3.3,   -3.1,   -3.1,   -3.5,   -3.3,   -3.5,   -3.5,   -3.7,   -3.9,   -4.0,   -4.1,   -4.2,   -4.3,   -4.2,   -4.2,   -4.0,   -4.0,   -3.8,   -3.8,   -3.8,   -3.8,   -3.7,   -3.7,   -3.6,   -3.6,   -3.6,   -3.6,   -3.6,   -3.6,   -3.6,   -3.6,   -3.6,   -3.7,   -3.7,   -3.7,   -3.7,   -3.7,   -3.8,   -3.8,   -3.9,   -3.3,  999.0,  999.0,   -1.5,   -1.5,   -1.5,   -1.5,   -1.5,   -1.5,   -1.5,   -1.5,   -1.5,   -1.5,   -1.4,   -1.4,   -1.3,   -1.3,   -1.4,   -1.4,   -1.3,   -1.2,   -1.1,   -1.1,   -1.1,   -1.1,   -1.0,   -1.0,   -1.0,   -1.0,   -1.0,   -1.1,   -1.0,   -1.1,   -1.0,   -1.0,   -0.9,   -1.0,   -0.9,   -0.9,   -0.8,   -0.8,   -0.9,   -0.8,   -0.8,   -0.7,   -0.7,   -0.6,   -0.5,   -0.5,   -0.5,  999.0,  999.0,  999.0,  999.0,  999.0,  999.0,  999.0
2008/06/09 07:00,   -2.4,   -2.2,   -2.4,   -2.3,   -2.3,   -2.3,   -2.5,   -2.7,   -2.8,   -2.6,   -2.8,   -2.8,   -3.1,   -3.4,   -3.3,   -3.2,   -3.2,   -3.1,   -3.2,   -3.3,   -3.3,   -3.4,   -3.3,   -3.4,   -3.5,   -3.6,   -3.6,   -3.6,   -3.5,   -3.5,   -3.5,   -3.5,   -3.5,   -3.5,   -3.5,   -3.5,   -3.5,   -3.4,   -3.4,   -3.5,   -3.4,   -3.4,   -3.1,  999.0,   -1.5,   -1.4,   -1.4,   -1.5,   -1.4,   -1.5,   -1.5,   -1.4,   -1.4,   -1.4,   -1.4,   -1.4,   -1.4,   -1.3,   -1.2,   -1.3,   -1.3,   -1.3,   -1.3,   -1.2,   -1.2,   -1.2,   -1.3,   -1.2,   -1.2,   -1.2,   -1.1,   -1.1,   -1.1,   -1.0,   -1.0,   -1.0,   -1.0,   -0.9,   -0.9,   -0.8,   -0.8,   -0.8,   -0.8,   -0.7,   -0.7,   -0.7,   -0.6,   -0.5,   -0.5,   -0.4,   -0.4,   -0.4,   -0.4,   -0.4,   -0.5,   -0.5,  999.0,  999.0,  999.0
2008/06/09 07:10,  999.0,   -1.0,   -2.2,   -2.4,   -2.6,   -3.0,   -3.1,   -3.1,   -3.0,   -3.1,   -3.2,   -3.3,   -3.4,   -3.4,   -3.5,   -3.3,   -3.2,   -3.2,   -3.2,   -3.2,   -3.2,   -3.2,   -3.2,   -3.3,   -3.3,   -3.2,   -3.2,   -3.1,   -3.1,   -3.1,   -3.1,   -3.2,   -3.1,   -3.1,   -3.2,   -3.2,   -3.3,   -3.3,   -3.3,   -3.2,   -3.2,   -3.2,   -3.1,   -2.1,   -1.4,   -1.2,   -1.3,   -1.3,   -1.2,   -1.2,   -1.2,   -1.2,   -1.3,   -1.3,   -1.3,   -1.3,   -1.3,   -1.3,   -1.2,   -1.4,   -1.4,   -1.3,   -1.3,   -1.2,   -1.2,   -1.2,   -1.1,   -1.1,   -1.1,   -1.1,   -1.1,   -1.1,   -1.1,   -1.1,   -1.1,   -1.0,   -1.0,   -1.0,   -1.0,   -0.9,   -0.9,   -0.8,   -0.8,   -0.7,   -0.7,   -0.8,   -0.7,   -0.5,   -0.5,  999.0,  999.0,  999.0,  999.0,  999.0,  999.0,  999.0,  999.0,  999.0,  999.0
2008/06/09 07:20,  999.0,  999.0,  999.0,  999.0,  999.0,   -1.1,  999.0,   -2.9,   -3.0,   -3.1,   -3.1,   -3.1,   -3.1,   -3.0,   -3.2,   -3.1,   -3.0,   -2.9,   -2.9,   -2.8,   -2.7,   -2.7,   -2.7,   -2.7,   -2.8,   -2.8,   -2.8,   -2.9,   -2.9,   -2.9,   -3.0,   -3.0,   -3.1,   -3.1,   -3.1,   -3.1,   -3.1,   -3.0,   -3.0,   -3.0,   -2.8,   -2.8,   -2.9,   -2.1,   -1.4,   -1.5,   -1.5,   -1.5,   -1.5,   -1.5,   -1.6,   -1.6,   -1.6,   -1.6,   -1.7,   -1.7,   -1.6,   -1.5,   -1.4,   -1.3,   -1.3,   -1.2,   -1.2,   -1.1,   -1.1,   -1.1,   -1.1,   -1.0,   -1.0,   -1.0,   -1.1,   -1.1,   -1.1,   -1.1,   -1.0,   -1.0,   -1.0,   -0.9,   -0.9,   -0.9,   -0.8,   -0.8,   -0.8,   -0.8,   -0.7,   -0.7,   -0.7,   -0.6,   -0.6,   -0.5,   -0.4,   -0.4,   -0.4,  999.0,  999.0,  999.0,  999.0,  999.0,  999.0
2008/06/09 07:30,    0.0,   -0.0,    0.0,   -0.0,   -0.8,   -1.1,   -1.8,   -1.5,   -2.5,   -5.1,   -5.1,   -5.0,   -4.8,   -4.3,   -3.0,   -3.6,   -3.6,   -3.5,   -3.5,   -3.7,   -3.6,   -3.6,   -3.5,   -3.6,   -3.5,   -3.8,   -3.8,   -3.8,   -4.0,   -4.0,   -4.1,   -4.2,   -4.2,   -4.3,   -4.2,   -4.2,   -4.1,   -4.1,   -4.1,   -3.9,   -4.1,   -4.2,   -4.0,   -2.7,   -2.0,   -1.8,   -1.7,   -1.7,   -1.6,   -1.6,   -1.6,   -1.6,   -1.6,   -1.6,   -1.4,   -1.4,   -1.4,   -1.3,   -1.3,   -1.3,   -1.2,   -1.2,   -1.2,   -1.1,   -1.1,   -1.0,   -1.0,   -1.0,   -1.0,   -0.9,   -0.9,   -0.9,   -0.9,   -1.0,   -0.9,   -0.9,   -0.8,   -0.8,   -0.8,   -0.8,   -0.7,   -0.7,   -0.6,   -0.6,   -0.6,   -0.6,   -0.6,   -0.4,   -0.5,   -0.4,  999.0,  999.0,   -0.0,  999.0,  999.0,  999.0,  999.0,  999.0,  999.0
2008/06/09 07:40,   -1.2,   -1.8,   -2.8,   -3.5,   -3.7,   -4.0,   -4.2,   -4.4,   -4.4,   -4.4,   -4.3,   -4.1,   -4.1,   -4.1,   -4.1,   -4.1,   -4.1,   -4.0,   -4.0,   -4.0,   -3.9,   -3.9,   -3.9,   -3.9,   -4.0,   -4.2,   -4.3,   -4.4,   -4.3,   -4.4,   -4.2,   -3.9,   -3.7,   -3.4,   -3.5,   -3.6,   -3.6,   -3.5,   -3.5,   -3.7,   -3.7,   -3.8,   -3.6,   -2.5,   -1.8,   -1.6,   -1.7,   -1.7,   -1.6,   -1.5,   -1.5,   -1.5,   -1.5,   -1.5,   -1.5,   -1.5,   -1.5,   -1.4,   -1.4,   -1.3,   -1.3,   -1.3,   -1.3,   -1.2,   -1.2,   -1.1,   -1.1,   -1.0,   -1.0,   -1.0,   -1.0,   -1.0,   -1.0,   -1.0,   -1.0,   -1.0,   -1.0,   -0.9,   -0.9,   -0.8,   -0.8,   -0.8,   -0.6,   -0.6,   -0.5,   -0.5,   -0.6,   -0.5,   -0.5,   -0.5,   -0.6,   -0.5,   -0.5,   -0.4,  999.0,  999.0,  999.0,  999.0,  999.0
2008/06/09 07:50,  999.0,   -2.1,   -2.4,   -2.6,   -2.8,   -2.9,   -3.0,   -3.1,   -3.2,   -3.2,   -3.3,   -3.3,   -3.2,   -3.3,   -3.3,   -3.3,   -3.3,   -3.4,   -3.3,   -3.3,   -3.6,   -3.6,   -3.6,   -3.8,   -3.7,   -4.0,   -4.0,   -4.1,   -3.9,   -4.0,   -3.9,   -3.8,   -3.5,   -3.6,   -3.6,   -3.6,   -3.7,   -3.9,   -3.9,   -4.0,   -4.0,   -4.0,   -3.8,   -2.5,  999.0,   -1.5,   -1.4,   -1.5,   -1.4,   -1.4,   -1.4,   -1.3,   -1.3,   -1.3,   -1.3,   -1.4,   -1.4,   -1.3,   -1.3,   -1.4,   -1.3,   -1.3,   -1.3,   -1.2,   -1.2,   -1.2,   -1.1,   -1.1,   -1.0,   -1.0,   -1.0,   -1.0,   -0.9,   -0.9,   -0.9,   -0.9,   -0.9,   -0.9,   -0.9,   -0.9,   -0.8,   -0.8,   -0.7,   -0.7,   -0.6,   -0.6,   -0.5,   -0.5,   -0.5,   -0.4,   -0.4,  999.0,  999.0,  999.0,  999.0,  999.0,  999.0,  999.0,  999.0
2008/06/09 08:00,   -2.6,   -3.4,   -3.6,   -3.7,   -3.4,   -3.5,   -3.7,   -3.6,   -3.6,   -3.7,   -3.8,   -4.1,   -4.1,   -4.1,   -4.2,   -4.2,   -4.2,   -4.3,   -4.3,   -4.3,   -4.2,   -4.2,   -4.2,   -4.2,   -4.1,   -4.1,   -4.1,   -4.1,   -4.2,   -4.1,   -4.1,   -4.0,   -3.9,   -3.8,   -3.8,   -3.7,   -3.7,   -3.6,   -3.5,   -3.7,   -3.7,   -3.4,   -3.5,   -2.2,   -1.6,   -1.5,   -1.5,   -1.5,   -1.5,   -1.4,   -1.4,   -1.4,   -1.4,   -1.4,   -1.4,   -1.4,   -1.4,   -1.3,   -1.3,   -1.4,   -1.4,   -1.3,   -1.3,   -1.3,   -1.3,   -1.2,   -1.2,   -1.1,   -1.1,   -1.0,   -1.0,   -0.9,   -0.9,   -0.9,   -0.9,   -0.9,   -0.9,   -0.9,   -0.8,   -0.8,   -0.7,   -0.7,   -0.6,   -0.6,   -0.6,   -0.6,   -0.5,   -0.6,  999.0,  999.0,  999.0,  999.0,  999.0,  999.0,  999.0,  999.0,  999.0,  999.0,  999.0
2008/06/09 08:10,  999.0,  999.0,   -3.0,   -3.0,   -3.1,   -3.0,   -3.2,   -3.2,   -3.3,   -3.4,   -3.5,   -3.6,   -3.7,   -3.7,   -3.7,   -3.8,   -3.9,   -3.9,   -3.8,   -3.8,   -4.2,   -4.1,   -4.1,   -4.1,   -4.3,   -4.3,   -4.3,   -4.3,   -4.5,   -4.4,   -4.6,   -4.6,   -4.7,   -4.7,   -4.9,   -5.0,   -4.9,   -5.0,   -5.1,   -5.1,   -5.1,   -5.4,   -4.2,  999.0,  999.0,   -1.7,   -1.6,   -1.5,   -1.5,   -1.4,   -1.3,   -1.3,   -1.3,   -1.3,   -1.3,   -1.3,   -1.4,   -1.3,   -1.2,   -1.2,   -1.1,   -1.1,   -1.1,   -1.0,   -1.1,   -1.1,   -1.1,   -1.1,   -1.0,   -1.1,   -1.1,   -1.0,   -1.0,   -0.9,   -0.9,   -0.9,   -0.8,   -0.8,   -0.9,   -0.9,   -0.9,   -0.8,   -0.8,   -0.8,   -0.8,   -0.8,   -0.9,   -0.8,  999.0,  999.0,  999.0,  999.0,  999.0,  999.0,  999.0,  999.0,  999.0,  999.0,  999.0
2008/06/09 08:20,   -4.0,   -4.3,   -4.1,   -4.1,   -4.2,   -4.3,   -4.3,   -4.3,   -4.4,   -4.4,   -4.8,   -4.8,   -4.9,   -4.8,   -4.9,   -4.8,   -4.8,   -4.8,   -4.8,   -4.8,   -4.8,   -4.9,   -4.9,   -5.0,   -5.0,   -5.1,   -5.1,   -5.2,   -5.2,   -5.2,   -5.3,   -5.3,   -5.3,   -5.3,   -5.2,   -5.3,   -5.3,   -5.4,   -5.3,   -5.4,   -5.4,   -5.6,   -4.6,  999.0,  999.0,  999.0,   -1.5,   -1.4,   -1.4,   -1.3,   -1.3,   -1.2,   -1.2,   -1.4,   -1.3,   -1.3,   -1.3,   -1.2,   -1.2,   -1.1,   -1.1,   -1.1,   -1.1,   -1.0,   -1.0,   -0.9,   -0.9,   -0.9,   -1.0,   -1.0,   -0.9,   -0.9,   -0.9,   -0.8,   -0.8,   -0.9,   -1.0,   -1.0,   -0.9,  999.0,  999.0,  999.0,  999.0,  999.0,  999.0,  999.0,  999.0,  999.0,  999.0,  999.0,  999.0,  999.0,  999.0,  999.0,  999.0,  999.0,  999.0,  999.0,  999.0
2008/06/09 08:30,   -4.3,   -4.5,   -4.6,   -4.7,   -4.8,   -4.8,   -4.9,   -4.9,   -5.0,   -5.0,   -5.1,   -5.1,   -5.3,   -5.1,   -5.2,   -5.3,   -5.3,   -5.3,   -5.2,   -5.2,   -5.3,   -5.3,   -5.3,   -5.4,   -5.5,   -5.6,   -5.5,   -5.6,   -5.6,   -5.6,   -5.6,   -5.6,   -5.4,   -5.3,   -5.2,   -5.2,   -5.1,   -4.9,   -5.0,   -4.8,   -4.7,   -4.5,   -3.7,  999.0,  999.0,   -1.3,   -1.3,   -1.2,   -1.2,   -1.2,   -1.2,   -1.2,   -1.3,   -1.3,   -1.3,   -1.3,   -1.3,   -1.3,   -1.3,   -1.3,   -1.2,   -1.2,   -1.1,   -1.0,   -1.0,   -0.9,   -0.8,   -0.7,   -0.7,   -0.7,   -0.6,  999.0,  999.0,  999.0,  999.0,  999.0,  999.0,  999.0,  999.0,  999.0,  999.0,  999.0,  999.0,  999.0,  999.0,  999.0,  999.0,  999.0,  999.0,  999.0,  999.0,  999.0,  999.0,  999.0,  999.0,  999.0,  999.0,  999.0,  999.0
2008/06/09 08:40,   -4.5,   -4.6,   -4.6,   -4.6,   -4.8,   -4.9,   -4.9,   -5.0,   -5.1,   -5.1,   -5.1,   -5.1,   -5.1,   -5.1,   -5.2,   -5.1,   -5.1,   -5.0,   -5.0,   -5.1,   -4.7,   -4.8,   -4.7,   -4.7,   -4.4,   -4.6,   -4.4,   -4.2,   -4.0,   -3.9,   -3.8,   -3.7,   -3.5,   -3.4,   -3.3,   -3.2,   -3.1,   -3.0,   -2.9,   -2.8,   -2.6,   -2.6,   -2.7,   -2.4,  999.0,   -1.2,   -1.2,   -1.2,   -1.2,   -1.2,   -1.2,   -1.3,   -1.4,   -1.4,   -1.4,   -1.4,   -1.4,   -1.3,   -1.4,   -1.4,   -1.3,   -1.3,   -1.2,   -1.1,   -1.0,   -1.0,   -0.9,   -0.8,   -0.7,   -0.6,  999.0,  999.0,  999.0,  999.0,  999.0,  999.0,  999.0,  999.0,  999.0,  999.0,  999.0,  999.0,  999.0,  999.0,  999.0,  999.0,  999.0,  999.0,  999.0,  999.0,  999.0,  999.0,  999.0,  999.0,  999.0,  999.0,  999.0,  999.0,  999.0
2008/06/09 08:50,   -3.0,   -2.8,   -2.8,   -2.9,   -3.1,   -3.2,   -3.2,   -3.3,   -3.4,   -3.5,   -3.5,   -3.5,   -3.4,   -3.3,   -3.4,   -3.4,   -3.5,   -3.7,   -3.6,   -3.5,   -3.4,   -3.3,   -3.4,   -3.3,   -3.7,   -3.9,   -3.9,   -3.8,   -3.9,   -3.7,   -3.7,   -3.4,   -3.2,   -3.1,   -3.2,   -3.1,  999.0,  999.0,   -4.0,   -3.9,   -3.6,   -3.7,   -3.5,  999.0,  999.0,   -1.3,   -1.2,   -1.2,   -1.2,   -1.2,   -1.1,   -1.1,   -1.2,   -1.1,   -1.1,   -1.1,   -1.1,   -1.1,   -1.1,   -1.1,   -1.1,   -1.1,   -1.1,   -1.0,   -1.0,   -0.9,   -0.8,   -0.8,  999.0,  999.0,  999.0,  999.0,  999.0,  999.0,  999.0,  999.0,  999.0,  999.0,  999.0,  999.0,  999.0,  999.0,  999.0,  999.0,  999.0,  999.0,  999.0,  999.0,  999.0,  999.0,  999.0,   -1.0,  999.0,  999.0,  999.0,  999.0,  999.0,  999.0,  999.0
2008/06/09 09:00,   -4.5,   -4.4,   -4.4,   -4.0,   -4.0,   -4.0,   -4.3,   -4.3,   -4.4,   -4.4,   -4.4,   -4.3,   -4.2,   -4.2,   -4.2,   -4.2,   -4.1,   -4.1,   -4.2,   -4.1,   -4.0,   -4.0,   -3.9,   -3.8,   -4.0,   -3.9,   -3.8,   -3.7,   -3.6,   -3.6,   -3.5,   -3.4,   -3.3,   -3.3,   -3.3,   -3.3,   -3.3,   -3.4,   -3.4,   -3.4,   -3.5,   -3.5,   -3.2,  999.0,  999.0,   -1.4,   -1.4,   -1.3,   -1.3,   -1.2,   -1.2,   -1.2,   -1.2,   -1.3,   -1.3,   -1.3,   -1.3,   -1.3,   -1.3,   -1.4,   -1.4,   -1.3,   -1.3,   -1.3,   -1.2,   -1.1,   -1.1,   -0.9,  999.0,  999.0,  999.0,  999.0,  999.0,  999.0,  999.0,  999.0,  999.0,  999.0,  999.0,  999.0,  999.0,  999.0,  999.0,  999.0,  999.0,  999.0,  999.0,  999.0,  999.0,  999.0,  999.0,  999.0,  999.0,  999.0,  999.0,  999.0,  999.0,  999.0,  999.0
2008/06/09 09:10,  999.0,   -2.6,   -3.2,   -2.8,   -2.3,   -2.8,   -2.3,   -2.5,   -2.5,   -2.6,   -2.9,   -2.8,   -2.8,   -2.8,   -2.5,   -2.4,   -2.2,   -2.3,   -2.3,   -2.3,   -2.3,   -2.2,   -2.2,   -2.3,   -2.4,   -2.5,   -2.6,   -2.6,   -2.6,   -2.6,   -2.8,   -2.9,   -3.0,   -3.1,   -3.1,   -3.1,   -3.2,   -3.2,   -3.2,   -3.3,   -3.3,   -3.3,   -3.3,  999.0,  999.0,  999.0,   -1.3,   -1.3,   -1.2,   -1.1,   -1.1,   -1.3,   -1.3,   -1.4,   -1.4,   -1.5,   -1.4,   -1.4,   -1.3,   -1.3,   -1.1,   -1.1,   -1.2,   -1.0,   -1.1,   -1.0,   -1.0,   -0.9,  999.0,   -0.8,   -0.8,  999.0,   -0.7,  999.0,  999.0,  999.0,  999.0,  999.0,  999.0,  999.0,  999.0,  999.0,  999.0,  999.0,  999.0,  999.0,  999.0,  999.0,  999.0,  999.0,  999.0,  999.0,  999.0,  999.0,  999.0,  999.0,  999.0,  999.0,  999.0
2008/06/09 09:20,    0.0,   -0.0,    0.1,    0.1,    0.0,    0.0,   -0.0,   -0.0,   -0.0,  999.0,    0.0,    0.0,   -0.0,   -0.0,  999.0,  999.0,   -2.2,   -2.4,   -2.6,   -2.6,   -2.6,   -2.5,   -2.5,   -2.5,   -2.6,   -2.7,   -2.8,   -2.9,   -2.9,   -2.9,   -3.0,   -3.1,   -3.2,   -3.3,   -3.3,   -3.4,   -3.5,   -3.5,   -3.5,   -3.5,   -3.6,   -3.6,   -3.6,  999.0,  999.0,   -1.1,   -1.3,   -1.3,   -1.4,   -1.4,   -1.3,   -1.4,   -1.4,   -1.4,   -1.4,   -1.4,   -1.4,   -1.4,   -1.3,   -1.3,   -1.3,   -1.3,   -1.3,   -1.2,   -1.1,   -1.1,   -1.0,   -1.0,   -0.8,   -0.9,   -0.8,   -0.8,   -0.8,   -0.9,  999.0,  999.0,  999.0,  999.0,  999.0,  999.0,  999.0,  999.0,  999.0,  999.0,  999.0,  999.0,  999.0,  999.0,  999.0,  999.0,  999.0,  999.0,  999.0,  999.0,  999.0,  999.0,  999.0,  999.0,  999.0
2008/06/09 09:30,   -0.0,    0.1,    0.1,    0.1,    0.0,    0.0,   -0.1,  999.0,  999.0,    0.1,   -0.1,    0.1,    0.1,    0.0,   -0.1,  999.0,  999.0,   -3.0,   -3.0,   -3.0,   -3.1,   -3.1,   -3.0,   -3.1,   -3.2,   -3.3,   -3.3,   -3.3,   -3.3,   -3.3,   -3.3,   -3.3,   -3.2,   -3.4,   -3.4,   -3.4,   -3.3,   -3.2,   -3.2,   -3.2,   -3.2,   -3.1,   -3.2,   -2.7,  999.0,   -1.2,   -1.2,   -1.2,   -1.2,   -1.2,   -1.2,   -1.3,   -1.4,   -1.4,   -1.4,   -1.3,   -1.3,   -1.3,   -1.3,   -1.3,   -1.2,   -1.2,   -1.2,   -1.1,   -1.0,   -1.0,   -0.9,   -0.8,   -0.8,   -0.7,  999.0,  999.0,  999.0,  999.0,  999.0,  999.0,  999.0,  999.0,  999.0,  999.0,  999.0,  999.0,  999.0,  999.0,  999.0,  999.0,  999.0,  999.0,  999.0,  999.0,  999.0,  999.0,  999.0,  999.0,  999.0,  999.0,  999.0,  999.0,  999.0
2008/06/09 09:40,   -0.0,   -0.0,    0.1,    0.1,    0.0,    0.0,    0.0,    0.1,    0.0,    0.0,   -0.0,   -0.0,   -0.0,   -0.0,   -0.0,   -0.1,   -0.6,   -0.8,   -0.7,   -0.1,  999.0,   -2.7,   -2.7,   -2.7,   -2.8,   -2.7,   -2.8,   -2.9,   -3.0,   -2.9,   -2.9,   -2.8,   -2.8,   -2.7,   -2.7,   -2.6,   -2.7,   -2.7,   -2.6,   -2.6,   -2.6,   -2.7,   -2.7,   -2.7,   -1.7,   -1.2,   -1.2,   -1.2,   -1.2,   -1.2,   -1.2,   -1.3,   -1.4,   -1.5,   -1.4,   -1.3,   -1.2,   -1.3,   -1.2,   -1.1,   -1.1,   -1.1,   -1.1,   -1.1,   -1.1,   -1.1,   -0.9,   -0.8,   -0.6,  999.0,  999.0,  999.0,  999.0,  999.0,  999.0,  999.0,  999.0,  999.0,  999.0,  999.0,  999.0,  999.0,  999.0,  999.0,  999.0,  999.0,  999.0,  999.0,  999.0,  999.0,  999.0,  999.0,  999.0,  999.0,  999.0,  999.0,  999.0,  999.0,  999.0
2008/06/09 09:50,    0.1,    0.1,   -0.0,   -0.0,    0.1,    0.1,   -0.8,   -0.9,   -0.9,   -0.1,    0.0,    0.0,    0.0,    0.1,    0.0,   -0.1,   -0.0,    0.0,   -4.2,   -4.2,   -4.2,   -4.2,  999.0,  999.0,  999.0,   -3.6,  999.0,   -3.7,   -3.2,   -3.2,   -3.1,   -2.9,   -2.8,   -2.6,   -2.5,   -2.5,   -2.8,   -3.0,   -3.1,   -3.2,   -3.1,   -3.2,   -3.1,   -2.6,   -1.9,   -1.3,   -1.3,   -1.2,   -1.2,   -1.1,   -1.2,   -1.2,   -1.1,   -1.0,   -1.0,   -1.0,   -1.0,   -0.9,   -1.0,   -1.0,   -1.1,   -1.1,   -1.1,   -1.1,   -1.1,   -1.1,   -1.0,   -0.8,   -0.7,   -0.7,  999.0,  999.0,  999.0,  999.0,  999.0,  999.0,  999.0,  999.0,  999.0,  999.0,  999.0,  999.0,  999.0,  999.0,  999.0,  999.0,  999.0,  999.0,  999.0,  999.0,  999.0,  999.0,  999.0,  999.0,  999.0,  999.0,  999.0,  999.0,  999.0
2008/06/09 10:00,  999.0,   -0.0,  999.0,  999.0,  999.0,   -2.5,   -2.6,   -2.9,   -3.0,   -3.2,   -3.2,   -3.3,   -3.4,   -3.4,   -3.1,   -3.1,   -3.5,   -3.5,   -3.5,   -3.5,   -3.6,   -3.6,   -3.5,   -3.5,   -3.4,   -3.3,   -3.2,   -3.2,   -3.3,   -3.3,   -3.4,   -3.3,   -3.4,   -3.3,   -3.4,   -3.4,   -3.4,   -3.3,   -3.2,   -3.2,   -3.2,   -3.1,   -3.1,   -2.7,  999.0,  999.0,   -1.0,   -1.0,   -1.0,   -0.9,   -0.9,   -0.9,   -0.9,   -0.9,   -1.0,   -1.0,   -1.1,   -1.1,   -1.1,   -1.0,   -1.0,   -1.0,   -1.0,   -1.0,   -1.0,   -0.9,   -0.8,   -0.8,  999.0,  999.0,  999.0,  999.0,  999.0,  999.0,  999.0,  999.0,  999.0,  999.0,  999.0,  999.0,  999.0,  999.0,  999.0,  999.0,  999.0,  999.0,  999.0,  999.0,  999.0,  999.0,  999.0,  999.0,  999.0,  999.0,   -0.8,  999.0,  999.0,  999.0,  999.0
2008/06/09 10:10,  999.0,  999.0,  999.0,  999.0,  999.0,  999.0,  999.0,  999.0,   -2.1,   -2.3,   -2.3,   -2.5,   -2.6,   -2.7,   -2.7,   -2.8,   -2.7,   -2.8,  999.0,   -2.8,   -2.9,   -2.9,   -2.9,   -2.9,   -2.9,   -2.7,   -2.8,   -2.8,   -2.7,   -2.6,   -2.6,   -2.6,   -2.6,   -2.7,   -2.7,   -2.8,   -2.7,   -2.6,   -2.6,   -2.6,   -2.6,   -2.5,   -2.5,   -2.4,  999.0,  999.0,   -0.8,   -0.8,   -0.9,   -0.9,   -0.9,   -0.9,   -0.9,   -1.0,   -1.0,   -1.0,   -1.1,   -1.1,   -1.1,   -1.2,   -1.2,   -1.1,   -1.1,   -1.1,   -1.2,   -1.0,  999.0,   -1.0,  999.0,  999.0,  999.0,  999.0,  999.0,  999.0,  999.0,  999.0,  999.0,  999.0,  999.0,  999.0,  999.0,  999.0,  999.0,  999.0,  999.0,  999.0,  999.0,  999.0,  999.0,  999.0,  999.0,  999.0,  999.0,  999.0,  999.0,  999.0,  999.0,  999.0,  999.0
2008/06/09 10:20,    0.1,    0.0,    0.2,   -0.0,   -0.1,   -0.1,   -0.0,   -0.0,   -0.0,    0.0,   -0.0,   -0.1,   -0.1,   -0.0,    0.0,    0.0,   -0.1,   -0.1,   -0.1,   -0.1,  999.0,  999.0,  999.0,  999.0,  999.0,   -1.3,  999.0,   -1.2,   -0.6,   -0.8,   -1.2,  999.0,  999.0,  999.0,  999.0,  999.0,  999.0,  999.0,  999.0,  999.0,  999.0,  999.0,  999.0,  999.0,   -1.2,   -0.8,   -0.7,   -0.7,   -0.7,   -0.7,   -0.7,   -0.7,   -0.7,   -1.0,   -1.0,   -1.0,   -1.1,   -1.1,   -1.2,   -1.1,   -1.1,   -1.1,   -1.0,   -1.0,   -1.1,   -1.0,   -0.8,   -0.6,   -0.6,  999.0,  999.0,  999.0,  999.0,  999.0,  999.0,  999.0,  999.0,  999.0,  999.0,  999.0,  999.0,  999.0,  999.0,  999.0,  999.0,  999.0,  999.0,  999.0,  999.0,  999.0,  999.0,  999.0,  999.0,  999.0,  999.0,  999.0,  999.0,  999.0,  999.0
2008/06/09 10:30,   -0.1,  999.0,    0.0,   -0.1,   -0.1,   -0.0,   -0.1,   -0.1,   -0.2,    0.1,   -0.1,   -0.1,   -0.0,   -0.0,    0.1,    0.1,    0.0,   -0.0,    0.0,   -0.1,  999.0,  999.0,  999.0,  999.0,  999.0,  999.0,  999.0,   -0.1,   -0.1,   -0.1,  999.0,  999.0,  999.0,  999.0,  999.0,  999.0,  999.0,  999.0,  999.0,  999.0,  999.0,  999.0,  999.0,  999.0,   -1.2,   -0.8,   -0.7,   -0.6,   -0.9,   -1.0,  999.0,  999.0,   -1.1,   -1.3,   -1.1,   -1.1,   -1.0,   -1.1,   -1.0,   -1.1,   -1.1,   -1.1,   -1.0,   -1.1,   -1.0,   -0.9,  999.0,  999.0,  999.0,  999.0,  999.0,  999.0,  999.0,  999.0,  999.0,  999.0,  999.0,  999.0,  999.0,  999.0,  999.0,  999.0,  999.0,  999.0,  999.0,  999.0,  999.0,  999.0,  999.0,  999.0,  999.0,  999.0,  999.0,  999.0,  999.0,  999.0,  999.0,  999.0,  999.0
2008/06/09 10:40,   -0.1,  999.0,    0.1,   -0.2,    0.0,    0.0,   -0.1,    0.2,    0.1,    0.1,    0.0,    0.1,    0.3,    0.1,   -0.0,    0.1,    0.1,    0.1,    0.1,    0.0,    0.0,  999.0,  999.0,  999.0,  999.0,  999.0,  999.0,   -0.0,   -0.0,   -0.0,    0.0,  999.0,  999.0,  999.0,  999.0,  999.0,  999.0,  999.0,  999.0,  999.0,  999.0,  999.0,  999.0,  999.0,   -1.2,   -0.9,   -1.0,   -1.0,   -0.9,   -0.8,   -0.8,   -0.9,   -1.0,   -1.2,   -1.3,   -1.3,   -1.4,   -1.4,   -1.4,   -1.5,   -1.3,   -1.1,   -1.0,  999.0,  999.0,  999.0,  999.0,  999.0,  999.0,  999.0,  999.0,  999.0,  999.0,  999.0,  999.0,  999.0,  999.0,  999.0,  999.0,  999.0,  999.0,  999.0,  999.0,  999.0,  999.0,  999.0,  999.0,  999.0,  999.0,  999.0,  999.0,  999.0,  999.0,  999.0,  999.0,  999.0,  999.0,  999.0,  999.0
2008/06/09 10:50,  999.0,  999.0,  999.0,   -0.1,   -0.1,   -0.0,   -0.0,    0.1,    0.1,    0.1,    0.4,    0.4,    0.6,    0.5,    0.6,    0.4,    0.1,    0.1,    0.0,   -0.0,  999.0,  999.0,  999.0,   -0.0,  999.0,  999.0,  999.0,    0.0,  999.0,   -0.1,  999.0,  999.0,  999.0,  999.0,  999.0,  999.0,  999.0,  999.0,   -3.1,  999.0,   -3.2,   -3.1,   -3.2,   -3.0,   -1.5,   -1.0,   -0.9,   -0.8,   -0.8,   -0.9,   -1.1,   -1.2,   -1.3,   -1.3,   -1.2,   -1.2,   -1.2,   -1.2,   -1.1,   -1.0,  999.0,   -0.9,   -0.6,  999.0,  999.0,  999.0,  999.0,  999.0,  999.0,  999.0,  999.0,  999.0,  999.0,  999.0,  999.0,  999.0,  999.0,  999.0,  999.0,  999.0,  999.0,  999.0,  999.0,  999.0,  999.0,  999.0,  999.0,  999.0,  999.0,  999.0,  999.0,  999.0,  999.0,  999.0,  999.0,  999.0,  999.0,  999.0,  999.0
2008/06/09 11:00,    0.0,  999.0,   -0.2,   -0.2,  999.0,  999.0,  999.0,  999.0,  999.0,    0.1,    0.0,    0.0,  999.0,  999.0,  999.0,  999.0,  999.0,  999.0,   -4.9,   -5.0,   -4.9,   -4.8,   -4.8,   -4.6,   -4.5,   -4.4,   -4.0,   -3.9,   -3.5,   -3.5,   -3.3,   -3.2,   -3.3,   -3.0,   -3.1,   -3.0,   -2.9,   -2.9,   -2.9,   -2.8,   -2.7,   -2.7,   -2.7,   -2.8,   -1.7,  999.0,  999.0,  999.0,   -0.9,   -1.1,   -1.2,   -1.2,   -1.3,   -1.3,   -1.3,   -1.2,  999.0,   -1.5,   -1.6,  999.0,  999.0,  999.0,  999.0,  999.0,  999.0,  999.0,  999.0,  999.0,  999.0,  999.0,  999.0,  999.0,  999.0,  999.0,  999.0,  999.0,  999.0,  999.0,  999.0,  999.0,  999.0,  999.0,  999.0,  999.0,  999.0,  999.0,  999.0,  999.0,  999.0,  999.0,  999.0,  999.0,  999.0,  999.0,  999.0,  999.0,  999.0,  999.0,  999.0
2008/06/09 11:10,    0.0,   -0.1,   -0.1,   -0.0,   -0.2,    0.0,    0.0,   -0.0,    0.0,    0.1,    0.0,   -0.0,    0.1,  999.0,  999.0,  999.0,  999.0,   -3.6,   -3.7,   -3.8,   -3.6,   -3.6,   -3.6,   -3.4,   -3.3,   -3.1,   -3.0,   -2.9,   -2.8,   -2.6,   -2.6,   -2.6,   -2.6,   -2.6,  999.0,  999.0,  999.0,  999.0,  999.0,  999.0,   -2.7,  999.0,  999.0,   -2.4,   -1.7,   -1.1,   -1.2,   -1.3,   -1.4,   -1.4,   -1.5,   -1.5,   -1.6,   -1.7,   -1.8,   -1.9,   -1.7,   -1.5,   -1.2,   -1.3,   -1.0,   -0.9,   -0.7,   -0.6,   -0.7,  999.0,  999.0,   -0.4,  999.0,  999.0,  999.0,  999.0,  999.0,  999.0,  999.0,  999.0,  999.0,  999.0,  999.0,  999.0,  999.0,  999.0,  999.0,  999.0,  999.0,  999.0,  999.0,  999.0,  999.0,  999.0,  999.0,  999.0,  999.0,  999.0,  999.0,  999.0,  999.0,  999.0,  999.0
2008/06/09 11:20,   -0.0,   -0.1,   -0.3,   -0.0,   -0.0,    0.1,   -0.0,    0.0,   -0.1,    0.2,   -0.0,   -0.0,   -0.0,   -0.0,  999.0,  999.0,   -3.1,   -3.0,   -2.9,   -3.0,   -2.9,   -2.9,   -2.8,   -2.8,   -2.7,   -2.6,   -2.6,   -2.7,   -2.7,   -2.9,   -2.9,   -3.1,   -3.1,   -3.1,   -3.3,   -3.4,   -3.4,   -3.5,   -3.3,  999.0,  999.0,  999.0,  999.0,   -2.6,  999.0,   -1.0,   -1.3,   -1.4,  999.0,   -1.7,  999.0,   -2.1,   -1.7,   -1.6,   -1.2,   -1.1,   -1.1,   -1.2,   -1.3,   -1.2,   -1.1,   -1.1,   -1.0,   -1.0,   -0.9,   -0.9,   -0.7,   -0.6,   -0.4,   -0.4,   -0.3,    0.0,    0.1,  999.0,  999.0,  999.0,  999.0,  999.0,  999.0,  999.0,  999.0,  999.0,  999.0,  999.0,  999.0,  999.0,  999.0,  999.0,  999.0,  999.0,  999.0,  999.0,  999.0,  999.0,  999.0,  999.0,  999.0,  999.0,  999.0
2008/06/09 11:30,    0.0,   -0.0,   -0.1,   -0.2,   -0.1,   -0.1,   -0.2,   -0.0,    0.0,    0.2,    0.0,    0.1,    0.0,   -0.1,  999.0,   -2.1,   -2.3,   -2.3,   -2.3,   -2.4,   -2.5,   -2.6,   -2.6,   -2.7,   -2.8,   -2.9,   -2.9,   -3.0,   -3.1,   -3.2,   -3.2,   -3.3,   -3.3,   -3.4,   -3.4,   -3.5,   -3.4,   -3.5,   -3.4,   -3.4,   -3.5,   -3.7,   -3.5,   -2.8,   -2.4,   -2.4,   -2.3,   -2.2,   -2.0,   -1.9,   -1.6,   -1.5,   -1.3,   -1.1,   -1.0,   -1.1,   -1.2,   -1.2,  999.0,   -1.2,  999.0,   -1.3,   -1.3,   -1.0,  999.0,   -1.1,   -1.0,   -0.8,   -0.7,   -1.0,   -0.7,   -0.4,   -0.2,  999.0,  999.0,  999.0,  999.0,  999.0,  999.0,  999.0,  999.0,  999.0,  999.0,  999.0,  999.0,  999.0,  999.0,  999.0,  999.0,  999.0,  999.0,  999.0,  999.0,   -0.2,  999.0,   -0.3,  999.0,  999.0,  999.0
2008/06/09 11:40,   -0.0,   -0.0,   -0.1,    0.0,    0.0,    0.0,   -0.0,   -0.0,    0.0,    0.3,    0.0,   -0.0,    0.0,   -0.0,    0.0,    0.0,  999.0,  999.0,  999.0,  999.0,  999.0,  999.0,  999.0,  999.0,  999.0,   -5.0,   -4.8,   -4.7,   -4.6,   -4.7,   -4.6,   -4.8,   -4.7,   -4.8,   -4.7,   -4.9,   -5.0,   -5.0,   -5.0,   -5.1,   -5.1,   -4.7,   -3.6,   -2.9,   -2.4,   -2.1,   -2.0,   -2.0,   -1.8,   -1.6,   -1.5,   -1.2,   -1.1,   -1.3,   -1.3,   -1.3,   -1.3,   -1.4,   -1.3,  999.0,   -1.2,   -1.3,   -1.1,   -1.0,   -0.9,   -1.0,   -0.8,   -0.9,   -0.7,   -0.8,   -0.6,   -0.4,   -0.4,  999.0,  999.0,  999.0,  999.0,  999.0,  999.0,  999.0,  999.0,  999.0,  999.0,  999.0,  999.0,  999.0,  999.0,  999.0,  999.0,  999.0,  999.0,  999.0,  999.0,  999.0,  999.0,  999.0,  999.0,  999.0,  999.0
2008/06/09 11:50,   -1.1,  999.0,  999.0,  999.0,  999.0,  999.0,  999.0,  999.0,  999.0,  999.0,  999.0,   -4.6,   -3.5,   -4.3,   -4.4,   -4.2,   -4.2,   -4.2,   -3.8,   -4.0,   -3.9,   -4.0,   -4.0,   -3.9,   -3.9,   -3.9,   -4.2,   -3.9,   -4.8,   -5.0,   -5.0,   -4.9,   -4.7,   -4.8,   -4.7,   -4.7,   -4.7,   -4.8,   -4.7,  999.0,   -4.9,   -3.2,  999.0,   -2.6,   -1.8,   -1.4,   -1.3,   -1.2,   -1.1,   -1.2,   -1.3,   -1.5,   -1.5,   -1.3,   -1.4,   -1.5,   -1.5,  999.0,  999.0,  999.0,  999.0,  999.0,  999.0,  999.0,  999.0,  999.0,  999.0,  999.0,  999.0,  999.0,  999.0,  999.0,  999.0,  999.0,  999.0,  999.0,  999.0,  999.0,  999.0,  999.0,  999.0,  999.0,  999.0,  999.0,  999.0,  999.0,  999.0,  999.0,  999.0,  999.0,  999.0,  999.0,  999.0,  999.0,  999.0,  999.0,  999.0,  999.0,  999.0
2008/06/09 12:00,    0.1,  999.0,    0.1,   -0.0,    0.0,   -0.2,    0.3,   -0.0,  999.0,  999.0,    0.1,    0.2,    0.0,   -0.2,  999.0,    0.1,   -2.0,   -2.0,   -3.1,   -3.0,   -3.0,   -3.2,  999.0,  999.0,   -4.8,   -4.6,   -4.7,   -4.8,   -4.6,   -4.4,   -4.2,   -4.0,   -3.9,   -3.7,   -3.5,   -3.6,   -3.5,   -4.7,  999.0,  999.0,  999.0,  999.0,  999.0,   -2.4,   -2.0,   -1.8,   -1.7,   -1.7,   -1.5,   -1.5,   -1.4,   -1.3,   -1.3,   -1.2,  999.0,  999.0,   -1.3,   -1.3,   -1.2,   -1.3,   -1.3,   -1.3,   -1.2,   -1.2,   -1.1,   -1.1,   -0.8,   -0.6,  999.0,  999.0,  999.0,  999.0,  999.0,  999.0,  999.0,  999.0,  999.0,  999.0,  999.0,  999.0,  999.0,  999.0,  999.0,  999.0,  999.0,  999.0,  999.0,  999.0,  999.0,  999.0,  999.0,  999.0,  999.0,  999.0,  999.0,  999.0,  999.0,  999.0,  999.0
2008/06/09 12:10,   -0.0,    0.0,    0.0,   -0.0,  999.0,   -0.0,   -0.1,   -0.0,    0.0,    0.1,   -0.0,    0.0,    0.0,   -1.9,  999.0,   -2.5,   -4.0,   -4.1,   -4.1,   -4.1,   -4.3,   -4.4,   -4.5,   -4.4,   -4.3,   -4.2,   -4.0,   -3.8,   -3.7,   -3.8,   -3.7,   -4.4,   -5.0,   -5.2,   -5.2,   -5.1,   -5.1,   -5.0,   -4.7,   -4.6,   -4.8,   -4.6,  999.0,  999.0,  999.0,   -1.7,   -1.4,   -1.2,   -1.3,   -1.2,   -1.3,   -1.4,   -1.5,   -1.6,   -1.5,   -1.4,   -1.3,   -1.4,   -1.4,   -1.4,   -1.4,   -1.2,   -1.2,   -1.2,   -1.1,   -1.1,   -1.0,  999.0,   -0.6,  999.0,  999.0,  999.0,  999.0,  999.0,  999.0,  999.0,  999.0,  999.0,  999.0,  999.0,  999.0,  999.0,  999.0,  999.0,  999.0,  999.0,  999.0,  999.0,  999.0,  999.0,  999.0,  999.0,  999.0,  999.0,  999.0,  999.0,  999.0,  999.0,  999.0
2008/06/09 12:20,   -0.0,   -0.1,   -0.0,   -0.1,  999.0,  999.0,   -4.8,   -4.5,   -4.5,   -4.8,   -4.8,   -4.7,   -4.3,   -4.3,   -4.4,   -4.2,   -4.4,   -4.4,   -4.6,   -4.6,   -4.6,   -4.8,   -4.6,   -4.6,   -4.5,   -4.6,   -4.5,   -4.6,   -4.6,   -4.5,   -4.5,   -4.4,   -4.3,   -4.1,   -3.9,   -3.7,   -3.5,  999.0,  999.0,  999.0,   -2.1,   -2.8,   -2.2,   -1.4,  999.0,  999.0,   -1.2,   -1.6,  999.0,   -1.4,   -1.4,   -1.3,   -1.2,   -1.1,   -1.3,   -1.3,   -1.4,   -1.5,   -1.7,   -1.8,   -1.7,   -1.8,   -1.9,   -1.9,   -1.8,   -1.9,   -1.8,   -1.7,   -1.3,   -1.1,   -1.0,   -1.0,   -1.0,   -0.9,   -0.8,   -0.6,   -0.5,   -0.7,  999.0,  999.0,  999.0,  999.0,  999.0,  999.0,  999.0,  999.0,  999.0,  999.0,  999.0,  999.0,  999.0,  999.0,  999.0,  999.0,  999.0,  999.0,  999.0,  999.0,  999.0
2008/06/09 12:30,  999.0,  999.0,  999.0,  999.0,  999.0,   -3.6,   -3.9,   -3.3,   -3.3,   -3.4,   -3.3,   -3.4,   -3.4,   -3.5,   -3.5,   -3.4,   -3.4,   -3.4,   -3.4,   -3.4,   -3.4,   -3.4,   -3.4,   -3.4,   -3.3,   -3.3,   -3.4,   -3.5,   -3.4,   -3.4,   -3.3,   -3.1,   -3.0,   -3.1,   -2.8,  999.0,  999.0,   -1.1,   -1.2,   -1.1,   -1.0,   -1.0,   -1.1,  999.0,   -1.6,   -1.4,   -1.5,   -1.6,   -1.6,   -1.6,   -1.6,   -1.8,   -1.8,   -1.7,   -1.9,   -2.1,   -2.0,   -1.9,   -1.7,   -1.6,   -1.6,   -1.5,   -1.4,   -1.3,   -1.3,   -1.3,   -1.2,   -1.0,   -0.8,   -0.7,   -0.6,   -0.5,   -0.2,   -0.1,    0.1,  999.0,  999.0,  999.0,  999.0,  999.0,  999.0,  999.0,  999.0,  999.0,  999.0,  999.0,  999.0,  999.0,  999.0,  999.0,  999.0,  999.0,  999.0,  999.0,  999.0,  999.0,  999.0,  999.0,  999.0
2008/06/09 12:40,  999.0,  999.0,  999.0,  999.0,  999.0,  999.0,  999.0,  999.0,   -3.0,   -3.2,   -2.9,   -3.0,   -3.0,   -3.1,   -3.2,   -3.4,   -3.4,   -3.2,   -3.3,   -3.4,   -3.7,   -3.7,   -3.7,   -3.4,   -3.2,   -3.0,   -2.8,   -2.6,   -2.6,   -2.5,   -2.4,  999.0,  999.0,   -3.9,   -3.9,   -3.9,   -4.0,   -3.9,   -4.0,   -4.2,   -4.4,   -4.4,  999.0,   -2.3,   -1.6,   -1.7,   -1.6,   -1.8,   -1.9,   -1.9,   -1.9,   -1.8,   -1.7,   -1.7,   -1.7,   -1.6,   -1.5,   -1.4,   -1.4,   -1.4,   -1.3,   -1.2,   -1.1,   -1.1,   -1.0,   -1.0,   -1.0,   -0.9,   -0.9,   -1.0,   -0.9,   -0.9,   -0.9,  999.0,  999.0,  999.0,  999.0,  999.0,  999.0,  999.0,  999.0,  999.0,  999.0,  999.0,  999.0,  999.0,  999.0,  999.0,  999.0,  999.0,  999.0,  999.0,  999.0,  999.0,  999.0,  999.0,  999.0,  999.0,  999.0
2008/06/09 12:50,   -0.0,   -0.0,   -0.1,   -0.1,  999.0,  999.0,  999.0,   -1.2,   -1.4,   -2.3,   -2.1,   -2.4,   -2.4,   -2.6,   -2.6,   -3.0,   -3.0,   -3.1,   -3.2,   -3.3,   -3.4,   -3.5,   -3.5,   -3.6,   -3.6,   -3.8,   -4.0,   -4.1,   -4.2,   -4.3,   -4.3,  999.0,   -7.2,   -7.0,   -6.8,   -6.5,   -5.8,   -5.6,   -5.5,   -5.5,   -5.6,   -5.2,   -5.2,  999.0,  999.0,   -1.9,   -1.7,   -1.6,   -1.5,   -1.5,   -1.5,   -1.4,   -1.3,   -1.3,   -1.2,   -1.2,   -1.3,   -1.3,   -1.3,   -1.3,   -1.3,   -1.2,   -1.2,   -1.2,   -1.1,   -1.0,   -0.9,   -0.8,   -0.8,   -0.8,   -0.7,   -0.8,   -0.6,   -0.4,  999.0,  999.0,  999.0,  999.0,  999.0,  999.0,  999.0,  999.0,  999.0,  999.0,  999.0,  999.0,  999.0,  999.0,  999.0,  999.0,  999.0,  999.0,  999.0,  999.0,  999.0,  999.0,  999.0,  999.0,  999.0
2008/06/09 13:00,   -0.0,   -0.0,   -0.3,   -0.1,   -0.9,  999.0,  999.0,  999.0,   -4.4,  999.0,   -4.6,   -4.2,   -4.1,   -4.7,   -4.7,   -4.7,   -4.8,   -4.8,   -4.8,   -4.9,   -4.9,   -6.3,   -6.4,   -6.3,   -6.3,   -6.2,   -6.1,   -5.9,   -5.7,  999.0,   -6.0,   -5.7,   -5.6,   -5.5,   -5.4,   -5.3,   -5.2,   -5.2,   -5.0,   -5.0,   -5.0,   -4.9,   -5.0,  999.0,  999.0,  999.0,  999.0,  999.0,   -1.2,   -1.1,   -1.2,   -1.3,   -1.4,   -1.4,   -1.3,   -1.3,   -1.2,   -1.1,   -1.1,   -1.0,   -0.9,   -0.8,   -0.6,   -0.5,   -0.5,   -0.4,   -0.2,  999.0,  999.0,  999.0,  999.0,  999.0,  999.0,  999.0,  999.0,  999.0,  999.0,  999.0,  999.0,  999.0,  999.0,  999.0,  999.0,  999.0,  999.0,  999.0,  999.0,  999.0,  999.0,  999.0,  999.0,  999.0,  999.0,  999.0,  999.0,  999.0,  999.0,  999.0,  999.0
2008/06/09 13:10,  999.0,  999.0,  999.0,   -5.2,   -5.1,   -5.2,   -5.3,   -5.2,   -5.3,   -5.2,   -5.3,   -5.4,   -5.4,   -5.3,   -5.5,   -5.4,   -5.6,   -5.6,   -5.6,   -5.5,   -5.4,   -5.2,   -5.2,   -5.1,   -5.2,   -5.3,   -5.2,   -5.2,   -5.1,   -5.0,   -5.0,   -4.9,   -4.9,   -4.7,   -4.6,   -4.5,   -4.5,   -4.5,   -4.5,   -4.5,   -4.4,   -4.4,   -4.2,  999.0,  999.0,  999.0,   -1.1,   -1.1,   -1.2,   -1.3,   -1.3,   -1.2,   -1.1,   -1.0,   -0.9,   -1.0,   -1.0,  999.0,  999.0,  999.0,   -0.9,   -0.8,   -0.7,  999.0,  999.0,  999.0,  999.0,  999.0,  999.0,  999.0,  999.0,  999.0,  999.0,  999.0,  999.0,  999.0,  999.0,  999.0,  999.0,  999.0,  999.0,  999.0,  999.0,  999.0,  999.0,  999.0,  999.0,  999.0,  999.0,  999.0,  999.0,  999.0,  999.0,  999.0,  999.0,  999.0,  999.0,  999.0,  999.0
2008/06/09 13:20,   -4.9,   -5.0,   -5.1,   -5.0,   -4.9,   -4.9,   -5.0,   -5.0,   -5.0,   -5.1,   -5.2,   -5.2,   -5.2,   -5.3,   -5.3,   -5.3,   -5.2,   -5.0,   -5.0,   -5.0,   -5.0,   -4.9,   -4.9,   -5.0,   -5.0,   -4.9,   -4.9,   -4.8,   -4.7,   -4.6,   -4.3,   -4.2,   -4.1,   -3.9,   -3.7,   -3.5,   -3.5,   -3.4,   -3.4,   -3.4,   -3.4,   -3.5,   -3.6,  999.0,  999.0,  999.0,   -1.0,   -1.1,   -1.2,   -0.9,   -0.8,   -0.9,   -0.9,   -0.9,   -0.8,   -0.9,   -1.0,   -1.0,   -0.9,   -0.8,   -0.8,   -0.7,   -0.7,  999.0,  999.0,  999.0,  999.0,  999.0,  999.0,  999.0,  999.0,  999.0,  999.0,  999.0,  999.0,  999.0,  999.0,  999.0,  999.0,  999.0,  999.0,  999.0,  999.0,  999.0,  999.0,  999.0,  999.0,  999.0,  999.0,  999.0,  999.0,  999.0,  999.0,  999.0,  999.0,  999.0,  999.0,  999.0,  999.0
2008/06/09 13:30,  999.0,  999.0,  999.0,  999.0,   -5.6,   -5.7,   -5.5,   -5.4,   -5.3,   -5.4,   -5.3,   -5.4,   -5.1,   -5.2,   -5.1,   -5.1,   -5.1,   -5.1,   -5.3,   -5.2,   -5.2,   -5.0,   -4.9,   -4.9,   -4.7,   -4.6,   -4.4,   -4.1,   -4.1,   -3.8,   -3.7,   -3.2,   -3.3,   -3.4,   -3.4,   -3.4,   -3.6,   -3.6,   -3.8,   -3.8,   -4.0,   -4.1,   -4.0,   -2.3,  999.0,  999.0,   -1.1,   -1.0,   -1.0,   -0.9,   -1.0,   -0.9,   -0.9,   -0.9,   -0.8,   -0.7,   -0.8,   -0.7,  999.0,  999.0,  999.0,  999.0,  999.0,  999.0,  999.0,  999.0,  999.0,  999.0,  999.0,  999.0,  999.0,  999.0,  999.0,  999.0,  999.0,  999.0,  999.0,  999.0,  999.0,  999.0,  999.0,  999.0,  999.0,  999.0,  999.0,  999.0,  999.0,  999.0,  999.0,  999.0,  999.0,  999.0,  999.0,  999.0,  999.0,  999.0,  999.0,  999.0,  999.0
2008/06/09 13:40,  999.0,   -5.2,   -5.0,   -4.9,   -4.9,   -5.0,   -4.9,   -4.9,   -4.9,   -4.8,   -4.8,   -4.8,   -4.7,   -4.7,   -4.6,   -4.7,   -4.4,   -4.4,   -4.4,   -4.5,   -4.6,   -4.6,   -4.5,   -4.4,   -4.4,   -4.2,   -4.0,   -4.0,   -3.8,   -3.6,   -3.5,   -3.4,   -3.4,   -3.3,   -3.3,   -3.3,   -3.2,   -3.2,   -3.3,   -3.3,   -3.2,   -3.3,   -3.1,   -2.5,  999.0,  999.0,   -0.8,   -0.9,   -0.8,   -0.8,   -0.9,   -0.9,   -0.9,   -0.8,  999.0,  999.0,  999.0,  999.0,  999.0,  999.0,  999.0,  999.0,  999.0,  999.0,  999.0,  999.0,  999.0,  999.0,  999.0,  999.0,  999.0,  999.0,  999.0,  999.0,  999.0,  999.0,  999.0,  999.0,  999.0,  999.0,  999.0,  999.0,  999.0,  999.0,  999.0,  999.0,  999.0,  999.0,  999.0,  999.0,  999.0,  999.0,  999.0,  999.0,  999.0,  999.0,  999.0,  999.0,  999.0
2008/06/09 13:50,   -0.2,  999.0,  999.0,  999.0,  999.0,  999.0,   -3.4,   -3.6,   -3.5,   -3.6,   -3.4,   -3.3,   -3.5,   -3.3,   -3.4,   -3.3,   -3.3,   -3.4,   -3.4,   -3.4,   -3.4,   -3.4,   -3.3,   -3.4,   -3.3,   -3.2,   -3.2,   -3.1,   -3.1,   -3.0,   -2.9,   -2.7,   -2.6,   -2.8,   -2.9,   -3.0,   -3.0,  999.0,   -3.0,   -2.9,   -2.8,   -2.8,  999.0,  999.0,   -1.1,   -0.7,   -0.7,   -0.7,   -0.8,   -0.7,   -0.7,  999.0,  999.0,  999.0,  999.0,  999.0,  999.0,  999.0,  999.0,  999.0,  999.0,  999.0,  999.0,  999.0,  999.0,  999.0,  999.0,  999.0,  999.0,  999.0,  999.0,  999.0,  999.0,  999.0,  999.0,  999.0,  999.0,  999.0,  999.0,  999.0,  999.0,  999.0,  999.0,  999.0,  999.0,  999.0,  999.0,  999.0,  999.0,  999.0,  999.0,  999.0,  999.0,  999.0,  999.0,  999.0,  999.0,  999.0,  999.0
2008/06/09 14:00,   -0.1,   -0.0,   -0.2,  999.0,  999.0,  999.0,  999.0,   -0.0,  999.0,    0.3,  999.0,   -1.1,   -1.2,   -1.2,   -1.6,   -1.6,   -2.3,   -2.2,   -2.2,   -2.1,   -2.3,   -2.2,   -2.1,   -2.1,   -2.1,   -2.2,   -2.3,   -2.2,   -2.2,   -2.3,   -2.1,   -2.3,  999.0,  999.0,  999.0,  999.0,  999.0,  999.0,  999.0,  999.0,  999.0,  999.0,  999.0,  999.0,  999.0,  999.0,  999.0,  999.0,  999.0,  999.0,  999.0,  999.0,  999.0,  999.0,  999.0,  999.0,  999.0,  999.0,  999.0,  999.0,  999.0,  999.0,  999.0,  999.0,  999.0,  999.0,  999.0,  999.0,  999.0,  999.0,  999.0,  999.0,  999.0,  999.0,  999.0,  999.0,  999.0,  999.0,  999.0,  999.0,  999.0,  999.0,  999.0,  999.0,  999.0,  999.0,  999.0,  999.0,  999.0,  999.0,  999.0,  999.0,  999.0,  999.0,  999.0,  999.0,  999.0,  999.0,  999.0
2008/06/09 14:10,   -0.0,   -0.2,   -0.4,   -0.1,   -0.1,   -0.1,  999.0,   -0.0,   -0.1,   -0.0,  999.0,   -0.0,    0.1,  999.0,  999.0,   -0.0,   -0.1,   -0.1,  999.0,  999.0,  999.0,  999.0,   -0.4,   -0.0,   -0.8,  999.0,  999.0,   -0.1,  999.0,  999.0,    0.0,    0.1,  999.0,  999.0,  999.0,  999.0,  999.0,  999.0,  999.0,  999.0,  999.0,  999.0,  999.0,  999.0,  999.0,  999.0,  999.0,  999.0,  999.0,  999.0,  999.0,  999.0,  999.0,  999.0,  999.0,  999.0,  999.0,  999.0,  999.0,  999.0,  999.0,  999.0,  999.0,  999.0,  999.0,  999.0,  999.0,  999.0,  999.0,  999.0,  999.0,  999.0,  999.0,  999.0,  999.0,  999.0,  999.0,  999.0,  999.0,  999.0,  999.0,  999.0,  999.0,  999.0,  999.0,  999.0,  999.0,  999.0,  999.0,  999.0,  999.0,  999.0,  999.0,  999.0,  999.0,  999.0,  999.0,  999.0,  999.0
2008/06/09 14:20,    0.1,    0.2,    0.0,   -0.0,    0.0,    0.0,    0.0,   -0.1,   -0.1,    0.3,    0.0,   -0.0,    0.0,   -0.0,    0.2,   -0.0,   -0.0,    0.0,  999.0,    0.0,    0.0,    0.1,   -0.0,   -0.0,  999.0,    0.0,    0.0,    0.0,    0.1,  999.0,   -0.0,    0.0,    0.1,    0.1,    0.1,  999.0,    0.1,  999.0,    0.0,    0.1,  999.0,  999.0,  999.0,  999.0,  999.0,  999.0,  999.0,    0.2,  999.0,  999.0,  999.0,  999.0,  999.0,  999.0,  999.0,  999.0,  999.0,  999.0,  999.0,  999.0,  999.0,  999.0,  999.0,  999.0,    0.1,  999.0,    0.1,    0.1,    0.1,    0.1,    0.1,    0.1,    0.1,  999.0,    0.1,    0.1,  999.0,  999.0,  999.0,  999.0,  999.0,  999.0,  999.0,    0.2,    0.0,    0.1,    0.1,  999.0,    0.1,    0.1,  999.0,  999.0,  999.0,  999.0,  999.0,    0.1,    0.1,    0.1,    0.1
2008/06/09 14:30,    0.0,   -0.2,    0.0,    0.2,    0.1,    0.2,    0.2,    0.1,    0.1,    0.3,    0.1,    0.1,    0.2,    0.2,    0.0,    0.0,   -0.1,   -0.1,  999.0,   -0.1,  999.0,   -0.1,   -0.1,  999.0,  999.0,   -0.1,   -0.1,   -0.1,  999.0,  999.0,   -0.1,   -0.0,    0.0,   -0.0,   -0.0,  999.0,  999.0,  999.0,  999.0,  999.0,  999.0,  999.0,  999.0,  999.0,  999.0,  999.0,  999.0,  999.0,  999.0,   -0.0,  999.0,  999.0,  999.0,  999.0,  999.0,  999.0,  999.0,  999.0,  999.0,   -0.9,  999.0,  999.0,  999.0,  999.0,  999.0,  999.0,  999.0,  999.0,    0.1,    0.1,  999.0,    0.1,  999.0,  999.0,    0.1,  999.0,    0.1,    0.1,    0.1,  999.0,  999.0,    0.1,  999.0,  999.0,  999.0,  999.0,    0.1,  999.0,  999.0,  999.0,  999.0,    0.1,  999.0,  999.0,  999.0,    0.1,    0.1,  999.0,  999.0
2008/06/09 14:40,   -0.0,   -0.0,   -0.0,   -0.1,   -0.1,   -0.1,   -0.2,   -0.2,   -0.1,    0.1,    0.0,   -0.1,   -0.0,   -0.0,    0.0,   -0.0,   -0.0,    0.0,  999.0,   -0.1,    0.0,   -0.0,    0.0,  999.0,  999.0,   -0.0,   -0.0,  999.0,  999.0,  999.0,  999.0,  999.0,  999.0,    0.1,   -0.0,  999.0,   -0.0,  999.0,  999.0,  999.0,  999.0,  999.0,  999.0,  999.0,  999.0,  999.0,  999.0,  999.0,  999.0,  999.0,  999.0,  999.0,  999.0,  999.0,   -0.6,   -0.6,   -0.6,   -0.6,   -0.7,   -0.8,   -0.7,  999.0,  999.0,  999.0,  999.0,   -0.8,  999.0,  999.0,   -0.3,   -0.8,   -0.7,  999.0,  999.0,  999.0,  999.0,  999.0,  999.0,    0.0,  999.0,  999.0,  999.0,  999.0,  999.0,  999.0,  999.0,  999.0,  999.0,  999.0,  999.0,  999.0,  999.0,  999.0,  999.0,  999.0,  999.0,  999.0,  999.0,  999.0,  999.0
2008/06/09 14:50,    0.0,    0.0,    0.0,    0.1,    0.1,   -0.0,    0.0,   -0.1,    0.0,    0.1,    0.0,   -0.0,   -0.0,    0.0,    0.0,   -0.1,   -0.1,   -0.0,   -0.0,   -0.0,   -0.1,  999.0,  999.0,    0.0,   -0.0,   -0.0,  999.0,  999.0,  999.0,  999.0,  999.0,  999.0,  999.0,  999.0,  999.0,  999.0,  999.0,  999.0,  999.0,  999.0,  999.0,  999.0,  999.0,  999.0,  999.0,  999.0,  999.0,  999.0,  999.0,  999.0,  999.0,  999.0,  999.0,  999.0,   -0.8,   -0.7,   -0.7,   -0.8,   -0.7,   -0.7,   -0.7,   -0.7,   -0.8,   -0.9,   -0.8,   -0.8,   -0.9,   -0.9,   -0.8,   -0.7,   -0.8,   -0.9,   -0.8,   -1.0,  999.0,  999.0,  999.0,  999.0,  999.0,  999.0,  999.0,  999.0,  999.0,  999.0,  999.0,  999.0,  999.0,  999.0,  999.0,  999.0,  999.0,  999.0,  999.0,  999.0,  999.0,  999.0,   -0.8,  999.0,  999.0
2008/06/09 15:00,   -0.0,   -0.0,   -0.0,   -0.2,   -0.2,   -0.1,   -0.1,   -0.0,   -0.0,    0.3,   -0.0,    0.0,    0.1,   -0.0,  999.0,    0.1,    0.1,   -0.0,  999.0,    0.1,   -0.1,   -0.0,   -0.1,  999.0,    0.1,    0.1,  999.0,  999.0,  999.0,    0.1,   -0.0,    0.1,    0.0,   -0.0,  999.0,  999.0,  999.0,    0.1,    0.1,  999.0,  999.0,  999.0,  999.0,  999.0,   -0.7,   -0.8,   -0.8,   -0.7,   -0.6,   -0.5,   -0.4,   -0.3,   -1.3,   -1.2,   -1.1,   -1.0,   -1.0,   -1.0,   -1.0,   -1.0,   -1.0,   -1.0,   -1.0,   -1.0,   -0.9,   -1.0,   -1.0,   -1.0,   -1.1,   -0.9,   -1.0,   -0.9,   -1.2,   -1.3,   -1.1,   -1.2,   -1.0,  999.0,  999.0,  999.0,  999.0,  999.0,  999.0,  999.0,  999.0,  999.0,  999.0,  999.0,  999.0,  999.0,  999.0,  999.0,  999.0,  999.0,  999.0,  999.0,  999.0,  999.0,  999.0
2008/06/09 15:10,    0.0,    0.0,    0.1,    0.0,   -0.1,   -0.0,   -0.0,  999.0,   -0.0,    0.3,    0.1,    0.0,    0.1,    0.1,   -0.1,   -0.1,   -0.0,   -0.1,   -0.2,   -0.1,  999.0,   -0.1,   -0.0,  999.0,  999.0,    0.1,  999.0,  999.0,   -0.0,    0.0,   -0.0,    0.0,   -0.0,    0.0,  999.0,  999.0,  999.0,    0.0,  999.0,  999.0,  999.0,  999.0,  999.0,  999.0,   -1.3,   -1.0,   -1.0,   -1.1,   -1.2,   -1.2,   -1.1,   -1.1,   -1.0,   -1.0,   -1.0,   -1.0,   -1.1,   -1.2,   -1.2,   -1.1,   -1.2,   -1.1,   -1.2,   -1.2,   -1.1,   -1.1,   -1.1,   -1.0,   -1.1,   -1.2,   -1.2,   -1.3,   -1.2,   -0.9,   -1.0,   -0.7,   -0.5,   -0.4,   -0.3,   -0.2,   -0.2,  999.0,  999.0,  999.0,  999.0,  999.0,  999.0,  999.0,  999.0,  999.0,  999.0,  999.0,  999.0,  999.0,  999.0,  999.0,  999.0,  999.0,  999.0
2008/06/09 15:20,    0.0,    0.0,   -0.0,   -0.0,   -0.0,    0.0,    0.1,  999.0,   -0.0,    0.2,   -0.1,   -0.0,   -0.0,   -0.0,   -0.0,   -0.0,  999.0,   -0.1,    0.0,   -0.1,  999.0,   -0.1,  999.0,   -0.2,   -0.1,   -0.1,   -0.1,   -0.1,   -0.3,   -0.0,   -0.1,  999.0,  999.0,   -0.2,  999.0,  999.0,  999.0,  999.0,  999.0,  999.0,  999.0,  999.0,  999.0,  999.0,   -1.8,   -1.7,   -1.6,   -1.6,   -1.4,   -1.3,   -1.2,   -1.1,   -1.3,   -1.3,   -1.4,   -1.4,   -1.4,   -1.4,   -1.4,   -1.3,   -1.3,   -1.2,   -1.1,   -1.1,   -1.0,   -1.0,   -0.6,   -0.6,   -0.6,   -0.7,   -0.8,   -1.1,   -0.8,   -0.6,   -0.8,   -1.0,  999.0,   -0.5,   -0.6,  999.0,  999.0,  999.0,  999.0,  999.0,  999.0,  999.0,  999.0,  999.0,  999.0,  999.0,  999.0,  999.0,  999.0,  999.0,  999.0,  999.0,  999.0,  999.0,  999.0
2008/06/09 15:30,   -0.0,   -0.0,   -0.0,   -0.0,   -0.0,   -0.1,   -0.1,  999.0,   -0.0,    0.1,    0.0,    0.1,   -0.1,    0.1,    0.0,  999.0,  999.0,  999.0,  999.0,  999.0,  999.0,  999.0,  999.0,  999.0,   -3.6,   -3.3,   -3.3,   -3.5,   -3.6,   -3.7,   -3.9,   -3.8,   -3.9,   -3.9,   -3.9,   -3.9,   -4.0,   -4.0,   -4.0,   -4.0,   -3.9,   -4.0,   -3.8,   -3.0,  999.0,  999.0,   -1.6,   -1.7,   -1.9,   -1.8,   -1.7,   -1.6,   -1.5,   -1.4,   -1.4,   -1.4,   -1.3,   -1.3,   -1.3,   -1.2,   -1.2,   -1.1,   -1.2,   -1.2,   -1.2,   -1.1,   -1.1,   -1.0,   -0.9,   -0.9,   -0.9,   -1.1,   -1.2,   -1.0,   -1.0,   -1.1,   -1.0,  999.0,  999.0,  999.0,  999.0,  999.0,  999.0,  999.0,  999.0,  999.0,  999.0,  999.0,  999.0,  999.0,  999.0,  999.0,  999.0,  999.0,  999.0,  999.0,  999.0,  999.0,  999.0
2008/06/09 15:40,   -0.0,    0.0,   -0.1,   -0.1,   -0.1,   -0.1,   -0.1,   -0.4,   -0.6,   -1.0,   -1.2,   -1.0,  999.0,   -2.1,   -1.5,  999.0,   -3.0,   -3.0,   -3.0,   -3.0,   -3.1,   -3.0,   -3.0,   -2.9,   -2.9,   -2.9,   -2.9,   -3.0,   -3.1,   -3.1,   -3.4,   -3.5,   -3.5,   -3.5,   -3.6,   -3.7,   -3.8,   -4.1,   -4.1,   -4.4,   -4.8,   -4.9,   -4.1,  999.0,  999.0,   -1.9,   -1.8,   -1.7,   -1.7,   -1.6,   -1.5,   -1.4,   -1.3,   -1.3,   -1.3,   -1.3,   -1.3,   -1.3,   -1.3,   -1.3,   -1.3,   -1.3,   -1.2,   -1.2,   -1.1,   -1.0,   -1.0,   -0.9,   -0.9,   -0.8,   -0.6,   -0.5,   -0.6,   -0.6,   -0.6,   -0.5,   -0.6,   -0.5,  999.0,  999.0,  999.0,  999.0,  999.0,  999.0,  999.0,  999.0,  999.0,  999.0,  999.0,  999.0,  999.0,  999.0,  999.0,  999.0,  999.0,  999.0,  999.0,  999.0,  999.0
2008/06/09 15:50,   -2.6,   -2.7,   -2.6,   -2.6,   -2.6,   -3.6,   -5.5,   -5.5,   -3.3,   -4.4,   -3.3,   -4.4,   -5.5,   -4.7,   -4.6,   -4.6,   -4.5,   -4.5,   -4.5,   -4.5,   -4.7,   -4.7,   -4.6,   -4.4,   -4.3,   -4.4,   -4.4,   -4.5,   -4.5,   -5.1,   -5.3,   -5.3,   -5.4,   -5.2,   -5.2,   -5.1,   -5.0,   -5.0,   -4.9,   -4.9,   -4.8,   -4.9,   -4.5,  999.0,  999.0,   -1.5,   -1.5,   -1.5,   -1.4,   -1.4,   -1.4,   -1.3,   -1.3,   -1.3,   -1.3,   -1.2,   -1.3,   -1.2,   -1.3,   -1.3,   -1.3,   -1.3,   -1.2,   -1.2,   -1.1,   -1.0,   -1.0,   -1.0,   -1.0,   -1.0,   -1.1,   -1.2,   -1.0,   -1.2,  999.0,  999.0,  999.0,  999.0,  999.0,  999.0,  999.0,  999.0,  999.0,  999.0,  999.0,  999.0,  999.0,  999.0,  999.0,  999.0,  999.0,  999.0,  999.0,  999.0,  999.0,  999.0,  999.0,  999.0,  999.0
2008/06/09 16:00,   -5.2,   -5.2,   -5.2,   -5.2,   -5.4,   -5.5,   -5.3,   -5.2,   -5.2,   -5.4,   -6.0,   -5.8,   -6.0,   -6.1,   -5.9,   -6.0,   -6.0,   -6.1,   -6.1,   -6.1,   -6.0,   -5.5,   -5.3,   -5.2,   -5.2,   -5.2,   -5.1,   -5.0,   -4.8,   -4.4,   -4.2,   -3.8,   -3.8,   -3.7,   -3.7,   -3.7,   -3.9,   -3.9,   -3.8,   -3.9,   -4.0,   -3.9,   -3.8,   -2.8,  999.0,  999.0,   -1.7,   -1.7,   -1.7,   -1.6,   -1.6,   -1.5,   -1.6,   -1.5,   -1.4,   -1.4,   -1.3,   -1.3,   -1.3,   -1.2,   -1.2,   -1.1,   -0.8,   -0.7,   -0.5,   -0.4,   -0.3,   -0.4,   -0.1,  999.0,  999.0,  999.0,  999.0,  999.0,  999.0,  999.0,  999.0,  999.0,  999.0,  999.0,  999.0,  999.0,  999.0,  999.0,  999.0,  999.0,  999.0,  999.0,  999.0,  999.0,  999.0,  999.0,  999.0,  999.0,  999.0,  999.0,  999.0,  999.0,  999.0
2008/06/09 16:10,   -4.9,   -4.9,   -4.9,   -5.0,   -5.0,   -5.0,   -5.1,   -4.9,   -4.9,   -4.8,   -4.7,   -4.7,   -4.6,   -4.5,   -4.5,   -4.5,   -4.5,   -4.5,   -4.5,   -4.3,   -4.3,   -4.3,   -4.1,   -4.0,   -3.9,   -3.9,   -3.8,   -3.7,   -3.8,   -3.6,   -3.6,   -3.5,   -3.5,   -3.6,   -3.6,   -4.0,   -4.6,   -4.4,   -3.7,   -3.8,   -3.9,   -4.0,   -3.9,   -2.9,  999.0,   -1.6,   -1.7,   -1.7,   -1.6,   -1.5,   -1.4,   -1.3,   -1.2,   -1.2,   -1.1,   -1.0,   -1.0,   -0.9,   -0.8,   -0.8,   -0.8,   -0.7,   -0.9,   -0.9,   -0.9,   -1.0,   -1.0,   -1.0,   -1.0,   -0.9,   -0.9,   -0.8,  999.0,  999.0,    2.3,    2.6,    2.6,    2.6,  999.0,  999.0,  999.0,  999.0,  999.0,    2.7,  999.0,  999.0,  999.0,  999.0,  999.0,  999.0,  999.0,  999.0,  999.0,  999.0,  999.0,  999.0,  999.0,  999.0,  999.0
2008/06/09 16:20,   -2.6,   -2.6,   -2.7,   -3.0,   -3.1,   -3.2,   -3.2,   -3.3,   -3.2,   -3.2,   -3.1,   -2.9,   -2.9,   -2.9,   -2.9,   -3.1,   -3.1,   -3.2,   -3.2,   -3.2,   -3.1,   -3.1,   -3.1,   -3.2,   -3.3,   -3.4,   -3.5,   -3.8,   -4.2,   -4.6,   -4.7,   -5.2,   -5.0,   -4.8,   -5.0,   -5.2,   -5.3,   -5.3,   -5.2,   -5.5,   -5.5,   -5.4,   -4.9,  999.0,  999.0,  999.0,   -1.3,   -1.3,   -1.2,   -1.2,   -1.1,   -1.1,   -1.1,   -1.2,   -1.3,   -1.3,   -1.3,   -1.3,   -1.3,   -1.3,   -1.3,   -1.3,   -1.3,   -1.3,   -1.3,   -1.2,   -1.1,   -1.0,   -0.9,   -1.1,   -1.0,   -1.2,   -1.0,   -1.5,   -1.5,   -1.5,   -1.7,   -1.8,   -1.8,   -1.3,  999.0,  999.0,  999.0,  999.0,  999.0,  999.0,  999.0,  999.0,  999.0,  999.0,  999.0,  999.0,  999.0,  999.0,  999.0,  999.0,  999.0,  999.0,  999.0
2008/06/09 16:30,   -4.8,   -3.6,   -3.4,   -3.4,   -3.6,   -3.7,   -3.8,   -3.8,   -4.1,   -4.1,   -3.5,   -4.0,   -3.8,   -3.8,   -3.7,   -3.7,   -3.3,   -3.7,   -3.3,   -3.7,   -4.1,   -4.1,   -4.1,   -4.4,   -4.4,   -4.5,   -4.5,   -4.9,   -5.0,   -5.2,   -5.2,   -5.1,   -5.0,   -5.2,   -5.0,   -4.8,   -4.8,   -4.7,   -4.7,   -4.6,   -4.5,   -4.4,   -3.8,  999.0,  999.0,   -1.4,   -1.5,   -1.5,   -1.4,   -1.5,   -1.6,   -1.6,   -1.7,   -1.8,   -1.8,   -1.8,   -1.7,   -1.6,   -1.5,   -1.5,   -1.4,   -1.4,   -1.4,   -1.3,   -1.2,   -1.4,   -1.3,   -1.0,   -1.1,   -1.1,   -0.9,   -0.8,   -0.7,   -0.6,   -0.7,   -0.7,   -0.9,   -0.8,   -0.7,   -0.8,   -0.5,   -0.4,  999.0,  999.0,  999.0,  999.0,  999.0,  999.0,  999.0,  999.0,  999.0,  999.0,  999.0,  999.0,  999.0,  999.0,  999.0,  999.0,  999.0
2008/06/09 16:40,   -4.3,   -4.3,   -4.4,   -4.5,   -4.4,   -4.6,   -4.7,   -4.6,   -4.5,   -4.5,   -4.6,   -4.4,   -4.2,   -4.2,   -4.2,   -4.3,   -4.3,   -4.3,   -4.5,   -4.4,   -4.5,   -4.6,   -4.5,   -4.6,   -4.7,   -4.7,   -4.8,   -5.0,   -5.1,   -5.0,   -4.9,   -4.7,   -4.6,   -4.5,   -4.4,   -4.2,   -4.1,   -4.0,   -3.9,   -3.9,   -3.8,   -3.9,   -2.8,   -2.2,   -2.1,   -2.5,   -2.5,   -2.3,   -2.2,   -2.1,   -2.2,   -2.0,   -1.9,   -1.9,   -1.8,   -1.8,   -1.9,   -1.8,   -1.8,   -1.9,   -1.9,   -1.8,   -1.7,   -1.6,   -1.5,   -1.3,   -1.1,   -1.1,   -1.0,   -0.8,   -0.5,   -0.4,   -0.0,   -0.3,   -0.2,   -0.3,   -0.0,   -0.1,   -0.4,   -0.5,  999.0,  999.0,  999.0,  999.0,  999.0,  999.0,  999.0,  999.0,  999.0,  999.0,  999.0,  999.0,  999.0,  999.0,  999.0,  999.0,  999.0,  999.0,  999.0
2008/06/09 16:50,   -4.1,   -4.1,   -4.2,   -4.1,   -4.1,   -4.0,   -3.9,   -3.9,   -3.9,   -3.8,   -3.8,   -3.8,   -3.7,   -3.8,   -3.8,   -3.7,   -3.8,   -3.7,   -3.7,   -3.8,   -3.9,   -3.8,   -4.0,   -4.6,   -4.7,   -4.8,   -4.8,   -5.0,   -4.9,   -5.2,   -5.2,   -5.3,   -5.3,   -5.4,   -5.3,   -5.3,   -5.2,   -5.2,   -5.2,   -5.2,   -5.2,   -4.7,  999.0,  999.0,   -2.0,   -1.9,   -1.8,   -1.7,   -1.7,   -1.6,   -1.5,   -1.5,   -1.6,   -1.7,   -1.7,   -1.6,   -1.5,   -1.5,   -1.4,   -1.5,   -1.6,   -1.5,   -1.5,   -1.4,   -1.0,   -0.7,   -0.8,  999.0,   -0.6,  999.0,  999.0,  999.0,  999.0,  999.0,  999.0,  999.0,  999.0,  999.0,  999.0,  999.0,  999.0,  999.0,  999.0,  999.0,  999.0,  999.0,  999.0,  999.0,  999.0,  999.0,  999.0,  999.0,  999.0,  999.0,  999.0,  999.0,  999.0,  999.0,  999.0
2008/06/09 17:00,   -3.0,   -2.9,   -3.4,   -3.6,   -3.5,   -3.3,   -3.3,   -3.4,   -3.5,   -3.6,   -3.6,   -3.8,   -3.8,   -3.7,   -3.9,   -3.7,   -3.8,   -3.8,   -3.9,   -4.2,   -4.5,   -4.4,   -4.3,   -4.4,   -4.7,   -4.7,   -5.0,   -4.7,   -4.9,   -4.7,   -5.0,   -5.1,   -5.1,   -5.3,   -5.4,   -5.6,   -5.3,   -5.5,   -5.8,   -5.6,   -5.5,   -5.2,  999.0,  999.0,  999.0,  999.0,   -1.5,   -1.6,   -1.4,   -1.4,   -1.3,   -1.4,   -1.4,   -1.5,   -1.5,   -1.5,   -1.4,   -1.4,   -1.4,   -1.5,   -1.5,   -1.4,   -1.4,  999.0,  999.0,  999.0,  999.0,  999.0,  999.0,  999.0,  999.0,  999.0,  999.0,  999.0,  999.0,  999.0,  999.0,  999.0,  999.0,  999.0,  999.0,  999.0,  999.0,  999.0,  999.0,  999.0,  999.0,  999.0,  999.0,  999.0,  999.0,  999.0,  999.0,  999.0,  999.0,  999.0,  999.0,  999.0,  999.0
2008/06/09 17:10,   -4.4,   -4.8,   -4.8,   -4.9,   -4.9,   -5.0,   -5.1,   -5.0,   -5.1,   -5.1,   -5.2,   -5.2,   -5.2,   -5.2,   -5.1,   -5.1,   -5.0,   -5.0,   -5.1,   -5.1,   -5.1,   -5.0,   -5.0,   -4.9,   -5.0,   -5.0,   -5.1,   -5.1,   -5.1,   -5.1,   -5.1,   -5.3,   -5.3,   -5.1,   -5.2,   -5.1,   -5.2,   -5.3,   -5.1,   -5.3,   -5.1,   -5.2,   -3.5,  999.0,  999.0,  999.0,   -0.9,   -1.0,   -0.9,   -1.0,   -1.0,   -1.0,   -1.0,   -1.3,  999.0,   -1.3,  999.0,   -1.3,   -1.3,   -1.4,  999.0,  999.0,  999.0,  999.0,  999.0,  999.0,  999.0,  999.0,  999.0,  999.0,  999.0,  999.0,  999.0,  999.0,  999.0,  999.0,  999.0,  999.0,  999.0,  999.0,  999.0,  999.0,  999.0,  999.0,  999.0,  999.0,  999.0,  999.0,  999.0,  999.0,  999.0,  999.0,  999.0,  999.0,  999.0,  999.0,  999.0,  999.0,  999.0
2008/06/09 17:20,   -4.6,   -4.6,   -4.7,   -4.6,   -4.4,   -4.6,   -4.5,   -4.4,   -4.4,   -4.3,   -4.4,   -4.4,   -4.5,   -3.9,   -3.8,   -3.8,   -3.7,   -3.9,   -3.9,   -4.0,   -3.9,  999.0,   -4.0,  999.0,  999.0,  999.0,  999.0,   -5.1,   -5.0,   -4.7,   -4.6,   -4.4,   -4.2,   -4.3,   -4.0,   -4.1,   -4.2,   -4.1,   -4.2,   -4.2,   -4.2,   -4.1,   -3.4,  999.0,  999.0,   -1.2,   -1.3,   -1.2,   -1.1,   -1.0,   -1.1,   -1.5,   -1.3,   -1.3,   -1.3,   -1.3,   -1.3,   -1.2,   -1.2,   -1.1,   -1.1,   -1.0,   -1.0,   -0.9,   -1.0,   -0.2,  999.0,   -1.6,   -0.9,   -1.1,   -0.4,  999.0,  999.0,  999.0,  999.0,  999.0,  999.0,  999.0,  999.0,  999.0,  999.0,  999.0,  999.0,  999.0,  999.0,  999.0,  999.0,  999.0,  999.0,  999.0,  999.0,  999.0,  999.0,  999.0,  999.0,  999.0,  999.0,  999.0,  999.0
2008/06/09 17:30,   -0.9,   -0.7,   -0.5,   -0.7,   -0.5,   -0.1,   -0.1,   -0.1,   -0.1,   -0.0,   -1.3,   -0.8,   -1.4,   -1.7,   -1.7,   -2.5,   -1.8,   -2.5,   -2.5,   -2.5,   -2.5,   -2.5,   -2.5,   -2.5,   -2.5,   -2.5,   -2.7,   -2.7,   -3.2,   -3.0,   -3.0,   -2.9,   -2.9,   -2.6,   -2.6,   -2.7,   -2.6,   -2.7,   -2.5,   -2.6,   -2.7,   -2.7,   -3.0,   -1.6,  999.0,   -0.9,   -1.0,   -0.9,   -1.1,   -1.3,   -1.2,   -1.3,   -1.3,   -1.3,   -1.3,   -1.3,   -1.3,   -1.3,   -1.2,   -1.3,   -1.2,   -1.1,   -1.2,   -1.1,   -1.1,   -1.2,   -1.1,   -0.9,   -0.8,   -0.8,   -0.6,   -0.2,   -0.0,  999.0,  999.0,  999.0,  999.0,  999.0,  999.0,  999.0,  999.0,  999.0,  999.0,  999.0,  999.0,  999.0,  999.0,  999.0,  999.0,  999.0,  999.0,  999.0,  999.0,  999.0,  999.0,  999.0,  999.0,  999.0,  999.0
2008/06/09 17:40,  999.0,  999.0,  999.0,    0.3,   -0.0,   -0.1,   -0.1,    0.1,    0.1,   -0.0,    0.0,    0.0,   -0.1,    0.3,    0.1,    0.2,    0.3,  999.0,  999.0,   -0.0,   -0.2,  999.0,   -0.0,  999.0,   -0.1,  999.0,   -0.1,   -0.1,  999.0,  999.0,  999.0,  999.0,  999.0,  999.0,  999.0,  999.0,  999.0,  999.0,  999.0,  999.0,  999.0,  999.0,  999.0,  999.0,   -1.2,   -0.9,   -1.0,   -1.1,   -1.2,   -1.2,   -1.2,   -1.2,   -1.2,   -1.2,   -1.3,   -1.4,   -1.4,   -1.4,   -1.4,   -1.4,   -1.3,   -1.4,   -1.3,   -1.3,   -1.3,   -1.5,   -1.6,   -1.4,   -1.1,   -1.1,   -1.0,   -0.9,   -0.9,   -0.7,  999.0,  999.0,  999.0,  999.0,  999.0,  999.0,  999.0,  999.0,  999.0,  999.0,  999.0,  999.0,  999.0,  999.0,  999.0,  999.0,  999.0,  999.0,  999.0,  999.0,  999.0,  999.0,  999.0,  999.0,  999.0
2008/06/09 17:50,  999.0,  999.0,  999.0,    0.1,   -0.1,    0.1,    0.0,    0.2,    0.1,   -0.0,    0.0,   -0.0,   -0.1,   -0.0,   -0.0,   -0.1,    0.2,   -0.1,   -0.2,   -0.1,   -0.2,   -0.2,   -0.2,   -0.2,   -0.2,  999.0,   -0.3,  999.0,  999.0,  999.0,   -0.4,  999.0,  999.0,  999.0,  999.0,   -0.2,   -0.1,  999.0,  999.0,  999.0,  999.0,  999.0,  999.0,  999.0,   -1.6,   -1.2,   -1.2,   -1.1,   -1.0,   -0.9,   -0.8,   -1.2,   -1.2,   -1.2,   -1.2,   -1.2,   -1.1,   -1.0,   -0.9,   -0.9,   -0.9,   -0.9,   -0.9,   -1.2,   -1.4,   -1.2,  999.0,   -0.8,   -0.7,  999.0,   -1.2,  999.0,  999.0,  999.0,  999.0,  999.0,  999.0,  999.0,  999.0,  999.0,  999.0,  999.0,  999.0,  999.0,  999.0,  999.0,  999.0,  999.0,  999.0,  999.0,  999.0,  999.0,  999.0,  999.0,  999.0,  999.0,  999.0,  999.0,  999.0
2008/06/09 18:00,   -0.1,    0.9,    0.4,   -0.1,   -0.1,   -0.0,    0.0,   -0.0,   -0.1,    0.1,   -0.1,    0.1,  999.0,   -0.1,   -0.1,  999.0,  999.0,  999.0,    0.0,   -0.0,   -0.1,   -0.0,  999.0,  999.0,  999.0,    0.0,  999.0,  999.0,  999.0,  999.0,  999.0,  999.0,  999.0,  999.0,   -2.7,   -2.2,  999.0,  999.0,   -4.7,   -4.1,   -3.9,   -3.8,   -3.2,  999.0,  999.0,   -1.2,   -1.3,   -1.2,   -1.2,   -1.2,   -1.3,   -1.2,   -1.1,   -1.0,   -0.9,   -0.9,   -1.0,   -0.9,   -0.9,   -0.9,   -1.1,   -1.0,   -1.0,  999.0,   -0.8,  999.0,   -0.9,   -0.9,   -0.9,   -0.8,   -0.8,   -0.8,   -0.7,  999.0,  999.0,  999.0,  999.0,  999.0,  999.0,  999.0,  999.0,  999.0,  999.0,  999.0,  999.0,  999.0,  999.0,  999.0,  999.0,  999.0,  999.0,  999.0,  999.0,  999.0,  999.0,  999.0,  999.0,  999.0,  999.0
2008/06/09 18:10,    0.4,  999.0,  999.0,  999.0,  999.0,   -1.6,   -2.6,   -1.8,   -1.8,   -1.8,   -2.2,   -2.8,   -2.8,   -3.0,   -3.4,   -5.8,   -5.8,   -5.1,   -4.7,   -5.0,   -4.5,   -4.4,   -4.4,  999.0,   -2.2,   -2.7,   -3.4,   -3.4,   -3.5,   -3.2,   -4.2,   -4.3,   -4.4,   -4.1,   -3.7,   -3.5,   -3.4,   -3.2,   -3.4,   -3.8,   -4.2,   -3.9,   -3.9,   -2.6,   -1.7,   -1.3,   -1.0,   -0.9,   -0.8,   -0.8,   -0.6,   -0.6,   -0.6,   -0.6,   -0.7,   -0.9,   -0.8,   -0.8,   -0.7,   -0.9,   -1.0,   -0.9,   -0.8,   -0.8,   -0.8,   -0.8,   -0.8,   -0.8,   -0.9,   -0.4,  999.0,  999.0,  999.0,  999.0,  999.0,  999.0,  999.0,  999.0,  999.0,  999.0,  999.0,  999.0,  999.0,  999.0,  999.0,  999.0,  999.0,  999.0,  999.0,  999.0,  999.0,  999.0,  999.0,  999.0,  999.0,  999.0,  999.0,  999.0,  999.0
2008/06/09 18:20,    0.3,  999.0,  999.0,  999.0,    0.3,  999.0,   -0.2,  999.0,   -2.3,   -3.6,   -4.7,   -4.7,   -4.7,   -4.6,   -4.5,   -4.4,   -4.5,   -4.4,   -4.5,   -4.4,   -4.3,   -4.4,   -4.3,   -4.3,   -4.3,   -4.2,   -4.1,   -4.0,   -4.0,   -3.8,   -3.6,   -3.5,   -3.3,   -3.4,   -3.3,   -3.0,  999.0,  999.0,  999.0,  999.0,   -3.4,   -3.6,   -3.2,  999.0,   -1.6,  999.0,   -0.6,   -0.5,   -0.4,   -0.4,   -0.4,  999.0,   -0.9,   -1.1,   -1.1,   -1.1,   -1.2,   -1.2,   -1.3,   -1.2,   -1.2,   -1.2,   -1.1,   -1.2,   -1.3,   -1.1,   -1.1,   -0.9,  999.0,  999.0,  999.0,  999.0,  999.0,  999.0,  999.0,  999.0,  999.0,  999.0,  999.0,  999.0,  999.0,  999.0,  999.0,  999.0,  999.0,  999.0,  999.0,  999.0,  999.0,  999.0,  999.0,  999.0,  999.0,  999.0,  999.0,  999.0,  999.0,  999.0,  999.0
2008/06/09 18:30,  999.0,  999.0,   -0.1,    0.1,   -0.0,   -0.1,   -0.3,   -0.2,  999.0,  999.0,    0.5,  999.0,   -2.3,   -2.8,   -2.8,   -3.9,   -3.9,   -3.6,   -3.6,   -3.6,   -3.5,   -3.4,   -3.3,   -3.2,   -3.1,   -3.0,   -3.0,   -3.2,   -3.1,   -3.1,   -3.2,   -3.1,  999.0,  999.0,  999.0,  999.0,  999.0,  999.0,  999.0,  999.0,  999.0,  999.0,  999.0,   -1.4,   -0.8,   -0.6,   -0.6,   -0.7,   -1.1,   -1.0,   -1.0,   -1.1,   -1.1,   -1.2,   -1.2,   -1.3,   -1.3,   -1.3,   -1.2,   -1.2,   -1.2,   -1.1,   -1.2,   -1.3,   -1.3,   -1.3,   -1.3,   -1.3,   -1.3,   -1.2,   -1.2,  999.0,  999.0,  999.0,   -1.4,   -1.5,   -1.4,   -1.3,   -1.2,  999.0,   -0.9,  999.0,  999.0,  999.0,  999.0,  999.0,  999.0,  999.0,  999.0,  999.0,  999.0,  999.0,  999.0,  999.0,  999.0,  999.0,  999.0,  999.0,  999.0
2008/06/09 18:40,  999.0,   -0.2,  999.0,  999.0,   -0.1,    0.1,    0.1,  999.0,   -0.0,   -0.0,    0.1,    0.1,    0.4,  999.0,    0.2,  999.0,   -2.1,   -2.9,   -2.2,   -2.7,   -2.7,   -2.5,   -2.5,   -1.6,   -1.4,  999.0,  999.0,   -1.5,  999.0,   -0.2,  999.0,  999.0,  999.0,   -0.3,   -0.3,  999.0,    0.0,  999.0,  999.0,  999.0,  999.0,  999.0,  999.0,  999.0,   -1.5,   -1.1,   -1.1,   -1.1,   -1.2,   -1.2,   -1.2,   -1.2,   -1.3,   -1.3,   -1.4,   -1.3,   -1.3,   -1.3,   -1.3,   -1.3,   -1.1,   -1.0,   -0.9,   -0.9,   -0.9,   -1.1,   -1.1,   -1.2,   -1.0,   -1.0,   -1.0,   -0.8,   -1.1,   -1.2,   -1.4,   -1.4,   -1.3,  999.0,   -1.3,   -1.1,   -0.9,   -0.8,  999.0,  999.0,  999.0,  999.0,  999.0,  999.0,  999.0,  999.0,  999.0,  999.0,  999.0,  999.0,  999.0,  999.0,  999.0,  999.0,  999.0
2008/06/09 18:50,  999.0,    0.1,   -0.0,    0.2,   -0.1,   -0.1,   -0.0,   -0.1,   -0.2,    0.0,   -0.1,   -0.0,    0.0,    0.1,   -0.1,   -0.1,    0.0,   -0.0,    0.1,  999.0,  999.0,  999.0,   -0.0,  999.0,    0.0,  999.0,  999.0,  999.0,  999.0,    0.0,  999.0,  999.0,  999.0,  999.0,  999.0,  999.0,  999.0,   -2.9,   -2.6,   -2.7,   -2.8,   -2.8,   -2.6,   -2.8,   -2.1,  999.0,   -1.2,   -1.2,   -1.4,   -1.3,   -1.4,   -1.4,   -1.5,   -1.6,   -1.6,   -1.6,   -1.6,   -1.6,   -1.5,   -1.5,   -1.4,   -1.4,   -1.3,   -1.3,   -1.3,   -1.1,   -1.1,   -1.1,   -1.0,   -0.9,   -0.8,   -0.8,   -0.8,   -0.9,  999.0,  999.0,  999.0,  999.0,  999.0,  999.0,  999.0,  999.0,  999.0,  999.0,  999.0,  999.0,  999.0,  999.0,  999.0,  999.0,  999.0,  999.0,  999.0,  999.0,  999.0,  999.0,  999.0,  999.0,  999.0
2008/06/09 19:00,   -0.0,    0.3,    0.1,  999.0,   -0.2,    0.0,    0.0,   -0.0,    0.0,    0.0,    0.1,   -0.1,   -0.2,  999.0,   -0.1,    0.2,    0.1,  999.0,   -2.3,   -4.7,   -4.6,   -4.9,   -4.5,   -4.8,   -4.7,   -4.7,   -4.9,   -4.7,   -4.8,   -4.7,  999.0,  999.0,   -4.4,  999.0,  999.0,  999.0,   -3.5,   -3.4,   -3.5,   -3.6,   -3.6,  999.0,  999.0,   -2.5,   -1.9,   -1.4,   -1.6,   -1.5,   -1.6,   -1.6,   -1.6,   -1.5,   -1.5,   -1.4,   -1.4,   -1.4,   -1.5,   -1.4,   -1.4,   -1.4,   -1.4,   -1.3,   -1.4,   -1.3,   -1.3,   -1.2,   -1.1,   -1.1,   -1.0,   -1.0,   -1.1,   -0.7,   -0.9,  999.0,  999.0,  999.0,  999.0,  999.0,  999.0,  999.0,  999.0,  999.0,  999.0,  999.0,  999.0,  999.0,  999.0,  999.0,  999.0,  999.0,  999.0,  999.0,  999.0,  999.0,  999.0,  999.0,  999.0,  999.0,  999.0
2008/06/09 19:10,  999.0,  999.0,    0.2,  999.0,  999.0,    0.2,  999.0,  999.0,  999.0,  999.0,  999.0,  999.0,   -1.6,  999.0,   -3.4,   -3.5,   -4.0,   -3.7,   -3.7,   -3.7,   -3.6,   -3.5,   -3.5,   -3.4,   -3.4,   -3.5,   -3.5,   -3.4,   -3.3,   -3.4,   -3.6,   -3.7,   -3.9,   -3.8,   -3.8,   -3.8,   -3.8,   -3.9,   -3.8,   -3.8,   -3.9,   -3.8,  999.0,  999.0,  999.0,   -1.6,   -1.5,   -1.4,   -1.5,   -1.5,   -1.5,   -1.5,   -1.5,   -1.5,   -1.5,   -1.5,   -1.5,   -1.4,   -1.4,   -1.3,   -1.3,   -1.3,   -1.3,   -1.2,   -1.2,   -1.0,   -0.9,   -0.7,   -0.8,   -0.8,  999.0,  999.0,   -0.1,  999.0,  999.0,  999.0,  999.0,  999.0,  999.0,  999.0,  999.0,  999.0,  999.0,  999.0,  999.0,  999.0,  999.0,  999.0,  999.0,  999.0,  999.0,  999.0,  999.0,  999.0,  999.0,  999.0,  999.0,  999.0,  999.0
2008/06/09 19:20,  999.0,  999.0,  999.0,  999.0,   -0.0,   -0.0,    0.2,  999.0,  999.0,   -0.1,   -0.2,    0.2,  999.0,  999.0,  999.0,  999.0,  999.0,   -3.8,   -4.6,   -4.7,   -4.5,   -4.5,   -4.2,   -4.0,   -4.0,   -3.9,   -4.2,   -4.6,   -4.6,   -4.6,   -4.5,   -4.5,   -4.3,   -4.2,   -4.2,   -4.2,   -4.2,   -4.3,   -4.4,   -4.4,   -4.5,  999.0,  999.0,  999.0,  999.0,   -1.3,   -1.3,   -1.4,   -1.4,   -1.4,   -1.4,   -1.4,   -1.5,   -1.5,   -1.5,   -1.6,   -1.6,   -1.6,   -1.5,   -1.5,   -1.4,   -1.4,   -1.5,   -1.4,   -1.4,   -1.3,   -1.3,   -1.4,   -1.3,   -1.5,   -1.6,  999.0,   -0.5,  999.0,  999.0,  999.0,  999.0,  999.0,  999.0,  999.0,  999.0,  999.0,  999.0,  999.0,  999.0,  999.0,  999.0,  999.0,  999.0,  999.0,  999.0,  999.0,  999.0,  999.0,  999.0,  999.0,  999.0,  999.0,  999.0
2008/06/09 19:30,  999.0,  999.0,    0.0,   -0.1,   -0.5,   -0.2,   -2.1,   -2.3,   -4.4,   -2.8,   -4.5,   -4.3,   -4.1,   -4.1,   -4.1,   -4.1,   -4.1,   -4.0,   -4.0,   -4.0,   -4.0,   -4.0,   -4.0,   -3.9,   -3.9,   -3.9,   -3.9,   -4.0,   -4.0,   -4.1,   -4.3,   -4.4,   -4.4,   -4.4,   -4.4,   -4.4,   -4.6,   -4.5,   -4.6,   -4.5,   -4.4,   -4.3,   -3.5,  999.0,  999.0,   -1.2,   -1.1,   -1.3,   -1.3,   -1.5,   -1.2,   -1.3,   -1.4,   -1.4,   -1.5,   -1.5,   -1.6,   -1.8,   -1.8,   -1.4,   -1.2,   -1.3,   -1.6,   -1.8,   -1.9,  999.0,  999.0,  999.0,  999.0,  999.0,  999.0,  999.0,  999.0,  999.0,  999.0,  999.0,  999.0,  999.0,  999.0,  999.0,  999.0,  999.0,  999.0,  999.0,  999.0,  999.0,  999.0,  999.0,  999.0,  999.0,  999.0,  999.0,  999.0,  999.0,  999.0,  999.0,  999.0,  999.0,  999.0
2008/06/09 19:40,  999.0,    1.1,    0.6,    0.5,  999.0,  999.0,  999.0,    0.8,    0.1,    0.2,   -1.2,   -1.5,   -1.4,   -1.1,   -1.9,   -2.5,   -3.0,   -3.0,   -3.1,   -3.0,   -3.0,   -3.0,   -3.0,   -2.9,   -4.2,   -4.3,   -4.3,   -4.6,   -4.7,   -4.6,   -4.7,   -5.0,   -4.1,   -4.1,   -4.3,   -4.5,   -4.6,   -4.7,   -4.5,   -4.6,   -4.5,  999.0,  999.0,  999.0,   -2.1,   -2.2,   -1.9,   -1.8,   -1.6,   -1.4,   -1.3,   -1.2,   -1.2,   -1.2,   -1.3,   -1.4,   -1.6,   -1.6,   -1.5,   -1.6,   -1.6,   -1.5,   -1.5,   -1.4,   -1.3,   -1.3,   -1.0,   -0.9,   -0.9,   -0.6,  999.0,  999.0,  999.0,  999.0,  999.0,  999.0,  999.0,  999.0,  999.0,  999.0,  999.0,  999.0,  999.0,  999.0,  999.0,  999.0,  999.0,  999.0,  999.0,  999.0,  999.0,  999.0,  999.0,  999.0,  999.0,  999.0,  999.0,  999.0,  999.0
2008/06/09 19:50,   -2.8,   -2.8,   -3.5,   -3.4,   -2.4,   -1.5,   -1.6,   -1.6,   -1.7,   -3.5,   -5.2,   -2.3,   -4.2,   -4.3,   -4.0,   -5.4,   -5.4,   -5.3,   -5.2,   -5.2,   -5.2,   -5.0,   -4.9,   -5.2,   -5.1,   -5.0,   -5.0,   -5.0,   -5.1,   -5.1,   -5.1,   -5.0,   -4.9,   -4.8,   -4.8,   -4.7,   -4.5,   -4.4,   -4.3,   -4.3,   -4.3,   -4.2,   -3.0,  999.0,   -1.5,   -1.7,   -1.5,   -1.8,   -1.7,   -1.7,   -1.6,   -1.7,   -1.6,   -1.6,   -1.5,   -1.5,   -1.4,   -1.4,   -1.3,   -1.3,   -1.2,   -1.1,   -1.2,   -1.1,   -1.1,   -1.0,   -0.8,   -0.8,  999.0,   -0.7,  999.0,  999.0,  999.0,  999.0,  999.0,  999.0,  999.0,  999.0,  999.0,  999.0,  999.0,  999.0,  999.0,  999.0,  999.0,  999.0,  999.0,  999.0,  999.0,  999.0,  999.0,  999.0,  999.0,  999.0,  999.0,  999.0,  999.0,  999.0,  999.0
2008/06/09 20:00,   -4.4,   -3.2,   -2.8,   -4.2,   -2.8,   -3.1,   -2.9,   -3.3,   -2.5,   -3.3,   -3.8,   -2.2,   -3.9,   -3.9,   -3.8,   -3.8,   -3.8,   -3.2,   -3.2,   -3.2,   -3.1,   -3.1,   -3.1,   -3.2,   -3.2,   -3.3,   -3.4,   -3.7,   -3.7,   -3.9,   -4.0,   -4.3,   -4.2,   -4.1,   -4.2,   -4.4,   -4.5,   -4.4,   -4.3,   -4.2,   -4.1,   -3.9,  999.0,  999.0,   -1.3,   -1.5,   -1.4,   -1.3,   -1.2,   -1.1,   -1.1,   -1.1,   -1.0,   -1.1,   -1.1,   -1.1,   -1.1,   -1.1,   -1.1,   -1.2,   -1.3,   -1.3,   -1.0,   -0.9,   -0.9,   -1.2,   -1.0,   -0.9,   -0.8,   -0.7,  999.0,  999.0,  999.0,  999.0,  999.0,  999.0,  999.0,  999.0,  999.0,  999.0,  999.0,  999.0,  999.0,  999.0,  999.0,  999.0,  999.0,  999.0,  999.0,  999.0,  999.0,  999.0,  999.0,  999.0,  999.0,  999.0,  999.0,  999.0,  999.0
2008/06/09 20:10,    0.1,    0.1,   -0.2,    0.2,  999.0,   -0.2,   -0.0,    0.1,    0.0,   -0.1,   -0.1,    0.2,    0.1,    0.1,  999.0,  999.0,   -1.6,   -1.9,   -2.6,   -2.7,   -2.6,   -3.2,   -3.4,   -3.4,   -3.3,   -3.3,   -3.3,   -3.2,   -3.3,   -3.6,   -3.9,   -4.0,   -4.1,   -4.1,   -4.3,   -4.6,   -4.5,   -4.4,  999.0,  999.0,  999.0,  999.0,   -2.2,  999.0,   -1.4,   -1.2,   -1.4,   -1.4,   -1.3,   -1.2,   -1.2,   -1.1,   -1.0,   -1.1,   -1.2,   -1.2,   -1.3,   -1.4,   -1.3,   -1.2,   -1.2,   -1.3,   -1.2,   -1.3,   -1.3,   -1.4,   -1.3,   -1.2,   -1.1,  999.0,   -1.0,   -0.9,  999.0,  999.0,  999.0,  999.0,  999.0,  999.0,  999.0,  999.0,  999.0,  999.0,  999.0,  999.0,  999.0,  999.0,  999.0,  999.0,  999.0,  999.0,  999.0,  999.0,  999.0,  999.0,  999.0,  999.0,  999.0,  999.0,  999.0
2008/06/09 20:20,    0.3,    0.1,    0.1,   -0.0,   -0.1,  999.0,   -0.1,   -0.0,   -0.1,   -0.1,   -0.1,    0.2,   -0.2,   -0.1,   -0.1,   -0.1,   -0.1,   -0.0,    0.1,  999.0,  999.0,   -0.2,    0.1,    0.0,    0.0,   -0.0,    0.0,    0.0,   -0.1,   -0.0,   -0.1,   -0.1,   -0.1,   -0.1,  999.0,  999.0,  999.0,  999.0,   -0.2,  999.0,  999.0,  999.0,  999.0,  999.0,  999.0,   -1.1,   -1.1,   -1.2,   -1.1,   -1.2,   -1.2,   -1.2,   -1.4,   -1.5,   -1.4,   -1.4,   -1.4,   -1.3,   -1.3,   -1.2,   -1.1,   -1.0,   -1.0,   -1.0,   -0.9,   -0.9,   -1.1,   -1.1,   -1.4,   -1.0,   -1.0,   -0.8,   -0.7,   -0.9,   -0.8,   -0.6,   -0.6,   -0.5,   -0.3,   -0.1,  999.0,  999.0,  999.0,  999.0,  999.0,  999.0,  999.0,  999.0,  999.0,  999.0,  999.0,  999.0,  999.0,  999.0,  999.0,  999.0,  999.0,  999.0,  999.0
2008/06/09 20:30,  999.0,  999.0,    0.1,    0.3,    0.4,  999.0,   -0.1,    0.1,    0.1,  999.0,    0.1,    0.1,   -0.2,    0.3,    0.7,    0.1,    0.1,    0.0,  999.0,    0.0,    0.2,    0.1,    0.0,    0.1,   -0.1,   -0.2,   -0.0,   -0.0,   -0.1,    0.0,   -0.2,   -0.0,   -0.3,   -0.2,   -0.3,  999.0,  999.0,  999.0,  999.0,  999.0,  999.0,  999.0,   -4.1,  999.0,   -2.2,  999.0,   -1.5,   -1.6,   -1.6,   -1.5,   -1.4,   -1.3,   -1.4,   -1.4,   -1.3,   -1.2,   -1.2,   -1.0,   -0.9,   -0.7,   -0.7,   -0.6,   -0.3,   -0.2,  999.0,  999.0,  999.0,  999.0,  999.0,  999.0,  999.0,  999.0,  999.0,  999.0,  999.0,  999.0,  999.0,  999.0,  999.0,  999.0,  999.0,  999.0,  999.0,  999.0,  999.0,  999.0,  999.0,  999.0,  999.0,  999.0,  999.0,  999.0,  999.0,  999.0,  999.0,  999.0,  999.0,  999.0,  999.0
2008/06/09 20:40,    0.1,  999.0,   -0.0,    0.0,    0.2,   -0.0,    0.0,    0.1,    0.0,    0.0,    0.1,    0.2,    0.1,    0.3,    0.1,   -0.1,    0.1,    0.1,   -0.0,    0.1,    0.0,    0.0,  999.0,    0.1,    0.1,   -0.1,    0.0,  999.0,   -0.1,   -0.1,   -0.2,   -0.2,  999.0,  999.0,  999.0,  999.0,  999.0,   -4.6,   -4.6,   -4.5,   -4.4,   -4.3,   -4.3,   -3.3,  999.0,   -1.2,   -1.2,   -1.2,   -1.2,   -1.4,   -1.2,   -1.2,   -1.2,   -1.1,   -1.1,   -1.0,   -0.9,  999.0,   -0.9,  999.0,  999.0,  999.0,  999.0,  999.0,  999.0,  999.0,  999.0,  999.0,  999.0,  999.0,  999.0,  999.0,  999.0,  999.0,  999.0,  999.0,  999.0,  999.0,  999.0,  999.0,  999.0,  999.0,  999.0,  999.0,  999.0,  999.0,  999.0,  999.0,  999.0,  999.0,   -1.2,  999.0,   -1.3,  999.0,  999.0,  999.0,  999.0,  999.0,  999.0
2008/06/09 20:50,  999.0,    0.3,    0.1,    0.1,    0.2,    0.2,    0.1,  999.0,    0.0,    0.0,  999.0,   -0.1,    0.2,    0.0,    0.2,    0.3,    0.1,    0.0,   -0.4,   -0.1,   -0.0,  999.0,  999.0,   -0.1,    0.1,  999.0,  999.0,   -3.9,  999.0,  999.0,   -4.0,   -3.9,   -3.9,   -3.9,   -3.8,   -3.8,   -3.8,   -3.6,   -3.5,   -3.5,   -3.3,   -3.2,   -3.1,   -2.7,   -1.8,   -0.9,   -0.7,   -0.6,   -0.6,   -0.5,   -0.6,  999.0,  999.0,  999.0,  999.0,   -1.4,  999.0,   -1.1,  999.0,  999.0,  999.0,  999.0,  999.0,  999.0,  999.0,  999.0,  999.0,  999.0,  999.0,  999.0,  999.0,  999.0,  999.0,  999.0,  999.0,  999.0,  999.0,  999.0,  999.0,  999.0,  999.0,  999.0,  999.0,  999.0,  999.0,  999.0,  999.0,  999.0,  999.0,  999.0,  999.0,  999.0,  999.0,  999.0,  999.0,  999.0,  999.0,   -0.9,  999.0
2008/06/09 21:00,    0.2,    0.2,    0.0,   -0.0,    0.2,    0.1,   -0.2,   -0.2,  999.0,   -0.1,    0.1,    0.1,   -0.1,    0.0,    0.0,   -0.1,   -0.1,   -0.1,    0.2,   -0.1,   -0.2,   -0.1,   -0.1,  999.0,  999.0,  999.0,  999.0,   -0.2,   -0.1,   -1.1,   -2.0,   -1.9,   -2.4,   -2.4,   -2.4,   -3.1,   -3.0,   -3.0,   -3.1,   -3.0,   -2.8,   -2.9,   -2.8,   -2.1,  999.0,  999.0,   -0.7,   -1.2,   -0.9,  999.0,  999.0,  999.0,  999.0,  999.0,   -1.4,   -1.2,   -1.3,   -1.4,   -1.4,   -1.1,   -0.9,   -0.8,   -0.9,   -1.0,   -0.8,   -0.8,   -0.7,   -0.8,   -1.2,   -0.8,   -0.8,  999.0,   -1.2,   -1.1,  999.0,  999.0,  999.0,  999.0,  999.0,  999.0,  999.0,  999.0,  999.0,  999.0,  999.0,  999.0,  999.0,  999.0,  999.0,  999.0,  999.0,  999.0,  999.0,  999.0,  999.0,  999.0,  999.0,  999.0,  999.0
2008/06/09 21:10,   -0.2,    0.2,    0.2,    0.1,    0.4,    0.1,  999.0,  999.0,  999.0,    0.1,    0.0,    0.0,    0.1,    0.1,   -0.1,    0.0,    0.0,    0.1,    0.1,    0.0,   -0.0,   -0.0,   -0.0,   -0.1,    0.0,   -0.1,   -0.0,   -0.0,   -0.1,   -0.1,   -0.1,  999.0,   -0.0,   -0.1,   -0.2,   -0.1,  999.0,   -2.6,  999.0,  999.0,   -2.3,  999.0,  999.0,  999.0,   -0.9,  999.0,  999.0,  999.0,   -1.6,   -1.5,   -1.5,   -1.4,   -1.4,   -1.3,   -1.2,   -1.1,   -1.0,   -1.0,   -1.0,   -1.0,   -1.0,   -1.0,   -1.0,   -1.1,   -1.1,   -1.1,   -1.0,   -0.9,   -1.0,   -0.9,   -0.8,   -0.8,   -0.8,   -1.0,   -1.1,  999.0,  999.0,  999.0,  999.0,  999.0,  999.0,  999.0,  999.0,  999.0,  999.0,  999.0,  999.0,  999.0,  999.0,  999.0,  999.0,  999.0,  999.0,  999.0,  999.0,  999.0,  999.0,  999.0,  999.0
2008/06/09 21:20,    0.3,    0.4,    0.0,   -0.1,   -0.1,    0.1,  999.0,    0.2,   -0.0,    0.1,    0.0,   -0.1,   -0.2,   -0.1,   -0.1,   -0.1,   -0.1,   -0.1,   -0.0,   -0.1,   -0.2,   -0.2,   -0.2,  999.0,   -0.2,  999.0,   -0.2,   -0.2,   -0.1,   -0.1,   -0.2,   -0.2,   -0.2,   -0.3,  999.0,  999.0,   -0.2,  999.0,  999.0,  999.0,  999.0,  999.0,  999.0,   -1.9,   -1.5,   -1.4,   -1.3,   -1.3,   -1.3,   -1.2,   -1.1,   -1.1,   -1.2,   -1.2,   -1.2,   -1.2,   -1.2,   -1.2,   -1.2,   -1.1,   -1.0,   -1.0,   -1.1,   -1.1,   -1.1,   -1.0,   -0.9,   -1.0,   -0.9,   -0.8,   -0.8,   -0.8,   -0.7,  999.0,  999.0,  999.0,  999.0,  999.0,  999.0,  999.0,  999.0,  999.0,  999.0,  999.0,  999.0,  999.0,  999.0,  999.0,  999.0,  999.0,  999.0,  999.0,  999.0,  999.0,  999.0,  999.0,  999.0,  999.0,  999.0
2008/06/09 21:30,   -0.3,  999.0,   -0.0,    0.0,    0.0,    0.4,    0.4,    0.1,  999.0,    0.2,    0.1,    0.1,    0.1,    0.2,   -0.0,   -0.0,    0.1,   -0.2,   -0.0,    0.0,    0.0,   -0.1,  999.0,  999.0,  999.0,  999.0,  999.0,   -2.7,   -4.0,   -5.3,   -5.3,   -5.3,   -5.3,   -5.2,   -5.2,   -5.4,   -5.2,   -5.1,   -5.0,   -4.9,   -5.3,   -5.1,   -4.7,  999.0,  999.0,  999.0,   -1.4,   -1.5,   -1.5,   -1.6,   -1.6,   -1.6,   -1.6,   -1.6,   -1.6,   -1.6,   -1.5,   -1.6,   -1.5,   -1.4,   -1.4,   -1.3,   -1.3,   -1.1,   -1.1,   -0.9,   -1.0,   -0.8,   -0.9,   -0.9,   -1.0,   -1.0,   -0.7,   -0.9,   -0.9,   -0.7,  999.0,  999.0,  999.0,  999.0,  999.0,  999.0,  999.0,  999.0,  999.0,  999.0,  999.0,  999.0,  999.0,  999.0,  999.0,  999.0,  999.0,  999.0,  999.0,  999.0,  999.0,  999.0,  999.0
2008/06/09 21:40,    0.4,    0.2,    0.1,    0.1,    0.1,  999.0,    0.0,    0.1,    0.2,   -0.1,    0.6,    0.5,    0.3,    0.1,   -0.0,   -0.1,    0.3,    0.1,    0.0,   -0.0,    0.1,  999.0,  999.0,  999.0,  999.0,  999.0,   -5.2,   -4.9,   -5.0,   -4.9,   -5.0,   -4.9,   -4.9,   -4.8,   -4.9,   -5.0,   -5.0,   -4.9,   -4.9,   -4.9,   -4.9,   -4.8,   -3.8,  999.0,  999.0,   -1.6,   -1.6,   -1.5,   -1.5,   -1.5,   -1.6,   -1.5,   -1.5,   -1.4,   -1.4,   -1.4,   -1.4,   -1.4,   -1.3,   -1.2,   -1.2,   -1.2,   -1.2,   -1.1,   -0.9,   -0.8,   -0.8,   -0.7,   -0.7,   -0.8,   -0.8,   -0.7,   -0.7,   -0.5,   -0.4,   -0.4,   -0.3,   -1.0,  999.0,  999.0,  999.0,  999.0,  999.0,  999.0,  999.0,  999.0,  999.0,  999.0,  999.0,  999.0,  999.0,  999.0,  999.0,  999.0,  999.0,  999.0,  999.0,  999.0,  999.0
2008/06/09 21:50,    0.5,    0.1,    0.0,    0.1,  999.0,  999.0,   -0.1,  999.0,  999.0,   -1.1,   -1.3,   -1.0,   -1.0,   -1.4,   -1.2,   -1.7,  999.0,  999.0,  999.0,   -5.0,   -4.7,   -4.5,   -4.4,   -4.9,   -4.7,   -4.8,   -4.8,   -4.6,   -4.5,   -4.4,   -4.4,   -4.2,   -4.1,   -4.0,   -3.8,   -4.0,   -4.2,   -4.3,   -4.3,   -4.3,   -4.5,   -4.7,   -4.0,  999.0,  999.0,   -1.6,   -1.5,   -1.5,   -1.5,   -1.5,   -1.4,   -1.3,   -1.3,   -1.2,   -1.2,   -1.1,   -1.2,   -1.3,   -1.2,   -1.3,   -1.0,   -1.1,   -0.9,   -0.7,   -0.6,   -0.6,   -0.5,   -0.5,   -0.5,   -0.5,   -0.4,   -0.4,   -0.3,   -0.2,  999.0,  999.0,   -0.2,  999.0,  999.0,  999.0,  999.0,  999.0,  999.0,  999.0,  999.0,  999.0,  999.0,  999.0,  999.0,  999.0,  999.0,  999.0,  999.0,  999.0,  999.0,  999.0,  999.0,  999.0,  999.0
2008/06/09 22:00,  999.0,  999.0,    0.0,    0.1,    0.1,  999.0,  999.0,   -0.0,   -0.0,  999.0,  999.0,  999.0,  999.0,  999.0,   -1.6,   -2.5,   -3.8,   -3.7,   -3.6,   -3.6,   -3.5,   -3.5,   -3.4,   -3.2,   -3.2,   -3.1,   -3.2,   -3.1,   -3.2,   -3.3,   -3.2,  999.0,   -3.2,   -3.2,   -3.3,   -3.5,   -4.3,   -4.7,   -4.4,   -4.5,   -4.3,   -4.3,   -4.7,   -3.1,  999.0,  999.0,   -1.2,   -1.0,   -0.9,   -0.8,   -0.7,   -0.6,   -0.7,   -1.1,   -0.8,   -1.0,   -0.9,   -1.0,   -0.9,   -0.9,   -0.9,   -0.8,   -0.8,   -0.7,   -0.7,   -0.7,   -0.7,   -0.7,   -0.8,   -0.6,   -0.6,  999.0,  999.0,  999.0,  999.0,  999.0,  999.0,  999.0,  999.0,  999.0,  999.0,  999.0,  999.0,  999.0,  999.0,  999.0,  999.0,  999.0,  999.0,  999.0,  999.0,  999.0,  999.0,  999.0,  999.0,  999.0,  999.0,  999.0,  999.0
2008/06/09 22:10,    0.2,   -0.0,    0.1,    0.0,    0.1,  999.0,   -0.2,    0.0,   -0.1,    0.1,   -0.1,    0.1,   -0.2,   -0.0,    0.0,    0.1,    0.0,   -0.2,   -0.2,   -0.1,  999.0,   -0.2,   -0.1,  999.0,  999.0,   -0.2,   -0.8,   -1.1,   -0.7,   -0.7,   -0.9,   -0.2,  999.0,  999.0,  999.0,  999.0,   -3.3,   -3.6,   -3.6,   -3.7,   -3.6,   -3.7,   -3.4,   -2.8,  999.0,  999.0,   -1.0,   -1.0,   -0.9,   -0.9,   -1.0,   -1.0,   -1.0,   -1.0,   -1.0,   -0.9,   -0.8,   -0.7,   -0.6,   -0.6,   -0.8,   -0.8,   -1.1,   -1.1,   -1.0,   -0.7,   -0.6,   -0.6,   -0.6,   -0.7,   -0.9,  999.0,   -0.5,  999.0,  999.0,  999.0,  999.0,  999.0,  999.0,  999.0,  999.0,  999.0,  999.0,  999.0,  999.0,  999.0,  999.0,  999.0,  999.0,  999.0,  999.0,  999.0,  999.0,  999.0,  999.0,  999.0,  999.0,  999.0,  999.0
2008/06/09 22:20,   -0.2,    0.2,    0.4,    0.4,    0.1,  999.0,    0.3,    0.1,  999.0,   -0.0,    0.0,   -0.0,   -0.1,    0.0,    0.0,    0.1,    0.1,  999.0,    0.1,    0.1,   -0.2,   -0.1,    0.2,   -0.1,    0.0,   -0.2,    0.1,   -0.1,   -0.1,   -0.0,   -0.1,   -0.0,    0.0,   -0.2,  999.0,  999.0,  999.0,  999.0,   -3.0,   -3.0,   -3.0,   -3.1,   -3.1,   -2.8,   -1.6,   -0.9,   -0.8,   -0.8,   -0.8,   -0.8,   -0.8,   -0.8,   -0.8,   -0.8,   -0.9,   -0.9,   -1.1,   -1.1,   -1.2,   -1.0,   -1.1,   -0.8,   -0.5,   -0.5,   -0.6,   -0.5,   -0.6,   -0.5,   -0.4,  999.0,  999.0,  999.0,  999.0,  999.0,  999.0,  999.0,  999.0,  999.0,  999.0,  999.0,  999.0,  999.0,  999.0,  999.0,  999.0,  999.0,  999.0,  999.0,  999.0,  999.0,  999.0,  999.0,  999.0,  999.0,  999.0,  999.0,  999.0,  999.0,  999.0
2008/06/09 22:30,   -0.0,   -0.2,    0.0,  999.0,  999.0,  999.0,  999.0,   -0.1,  999.0,   -0.1,    0.1,    0.1,    0.1,    0.2,    0.1,   -0.0,    0.0,    0.1,   -0.0,   -0.1,   -0.1,   -0.2,   -0.1,   -0.1,    0.1,   -0.1,   -0.1,   -0.1,   -0.1,   -0.2,   -0.1,   -0.2,   -0.3,   -0.2,  999.0,  999.0,  999.0,   -3.2,   -3.2,   -3.0,   -2.9,   -2.9,   -3.1,   -2.5,  999.0,  999.0,   -0.9,   -0.9,   -0.8,   -0.9,   -0.9,   -1.0,   -1.1,   -1.1,   -1.2,   -1.2,   -1.2,   -1.2,   -1.2,   -1.1,   -1.0,   -1.0,   -0.9,   -0.9,   -0.9,   -1.0,   -1.0,   -0.9,   -0.7,   -0.6,   -0.5,   -0.3,  999.0,  999.0,  999.0,  999.0,  999.0,  999.0,  999.0,  999.0,  999.0,  999.0,  999.0,  999.0,  999.0,  999.0,  999.0,  999.0,  999.0,  999.0,  999.0,  999.0,  999.0,  999.0,  999.0,  999.0,  999.0,  999.0,  999.0
2008/06/09 22:40,  999.0,  999.0,  999.0,    0.2,   -0.0,    0.0,    0.3,    0.4,   -0.1,    0.1,    0.1,   -0.1,   -0.3,    0.3,    0.1,    0.0,    0.1,    0.2,    0.3,  999.0,    0.1,  999.0,   -5.2,   -3.5,   -3.5,   -3.6,   -5.3,   -3.6,   -5.2,   -5.1,   -4.9,   -4.8,   -4.0,   -4.4,   -4.3,  999.0,  999.0,  999.0,   -3.1,   -3.2,   -3.2,  999.0,   -3.0,  999.0,  999.0,   -1.1,  999.0,  999.0,   -1.4,   -1.5,   -1.6,   -1.5,   -1.4,   -1.4,   -1.4,   -1.4,   -1.3,   -1.2,   -1.1,   -1.1,   -1.1,   -1.1,   -1.0,   -1.1,   -1.0,   -1.1,   -1.1,   -1.2,   -0.5,   -0.4,   -0.3,   -0.3,  999.0,  999.0,  999.0,  999.0,  999.0,  999.0,  999.0,  999.0,  999.0,  999.0,  999.0,  999.0,  999.0,  999.0,  999.0,  999.0,  999.0,  999.0,  999.0,  999.0,  999.0,  999.0,  999.0,  999.0,  999.0,  999.0,  999.0
2008/06/09 22:50,    0.5,    0.3,   -0.0,  999.0,  999.0,  999.0,   -0.2,    0.1,    0.1,    0.1,    0.1,   -0.5,   -0.3,   -0.6,   -0.8,   -0.7,   -0.9,  999.0,  999.0,  999.0,  999.0,   -3.9,   -4.0,   -3.9,   -3.9,   -3.9,   -3.8,   -3.8,   -4.0,   -4.0,   -3.9,   -4.2,   -4.1,   -4.4,   -4.8,   -4.5,  999.0,   -4.4,  999.0,   -4.5,   -4.4,   -4.5,  999.0,  999.0,  999.0,  999.0,   -1.5,   -1.3,   -1.3,   -1.2,   -1.2,   -1.2,   -1.2,   -1.2,   -1.3,   -1.2,   -1.2,   -1.1,   -1.0,  999.0,  999.0,  999.0,  999.0,  999.0,  999.0,   -1.4,  999.0,   -0.8,   -0.5,   -0.2,  999.0,  999.0,  999.0,  999.0,  999.0,  999.0,  999.0,  999.0,  999.0,  999.0,  999.0,  999.0,  999.0,  999.0,  999.0,  999.0,  999.0,  999.0,  999.0,  999.0,  999.0,  999.0,  999.0,  999.0,    0.2,  999.0,  999.0,  999.0,  999.0
2008/06/09 23:00,  999.0,   -0.0,    0.4,   -0.1,  999.0,    0.2,  999.0,   -1.4,   -1.3,   -1.3,   -1.2,   -2.9,   -1.8,   -3.8,   -5.0,   -5.1,   -4.9,   -4.7,   -4.7,   -4.5,   -4.5,   -4.1,   -4.1,   -3.9,   -4.0,   -4.0,   -4.6,   -5.1,   -5.1,   -5.3,   -5.2,   -5.0,   -5.2,   -4.9,   -5.6,   -5.3,   -5.6,   -5.4,   -5.7,   -5.8,   -6.1,   -4.7,  999.0,  999.0,   -1.6,   -1.5,   -1.4,   -1.2,   -1.0,   -0.9,   -0.9,   -0.8,   -0.8,   -0.9,  999.0,   -0.9,   -1.0,  999.0,  999.0,  999.0,  999.0,  999.0,  999.0,  999.0,  999.0,  999.0,  999.0,  999.0,  999.0,  999.0,  999.0,  999.0,  999.0,  999.0,  999.0,  999.0,  999.0,  999.0,  999.0,  999.0,  999.0,  999.0,  999.0,  999.0,  999.0,  999.0,  999.0,  999.0,  999.0,  999.0,  999.0,  999.0,  999.0,  999.0,  999.0,  999.0,  999.0,  999.0,  999.0
2008/06/09 23:10,   -2.9,   -5.0,   -4.8,   -4.5,   -4.4,   -4.4,   -4.8,   -4.9,   -5.0,   -4.7,   -4.8,   -4.8,   -4.7,   -4.7,   -4.6,   -4.6,   -4.7,   -4.7,   -4.7,   -4.4,   -4.6,   -4.7,   -5.0,   -5.0,   -5.3,   -5.6,   -5.7,   -6.0,   -5.8,   -6.1,   -5.7,   -5.7,   -5.5,   -5.6,   -5.5,   -5.4,   -5.3,   -5.1,   -4.9,   -4.7,   -4.3,   -3.8,  999.0,  999.0,  999.0,  999.0,   -0.9,   -0.8,   -0.7,  999.0,  999.0,  999.0,  999.0,  999.0,  999.0,  999.0,  999.0,  999.0,  999.0,   -0.8,  999.0,  999.0,  999.0,  999.0,  999.0,  999.0,  999.0,  999.0,  999.0,  999.0,  999.0,  999.0,  999.0,  999.0,  999.0,  999.0,  999.0,  999.0,  999.0,  999.0,  999.0,  999.0,  999.0,  999.0,  999.0,  999.0,  999.0,  999.0,  999.0,  999.0,  999.0,  999.0,  999.0,  999.0,  999.0,  999.0,  999.0,  999.0,  999.0
2008/06/09 23:20,  999.0,  999.0,  999.0,  999.0,  999.0,  999.0,  999.0,   -3.1,   -4.7,   -3.7,   -5.0,   -5.0,   -4.9,   -4.3,   -4.2,   -4.2,   -3.6,   -3.9,   -3.8,   -3.7,   -3.7,   -3.6,   -3.2,   -3.2,   -3.1,   -3.0,   -3.0,   -2.9,   -2.9,   -2.8,   -2.7,   -2.7,   -2.7,   -2.6,   -2.8,   -2.5,   -2.7,   -2.6,   -2.4,   -2.4,   -2.2,   -1.9,   -1.7,   -1.4,   -1.2,   -0.9,  999.0,  999.0,  999.0,  999.0,  999.0,  999.0,   -1.1,  999.0,   -1.0,   -1.2,   -1.2,   -0.9,  999.0,  999.0,  999.0,  999.0,  999.0,  999.0,  999.0,  999.0,  999.0,  999.0,  999.0,  999.0,  999.0,  999.0,  999.0,  999.0,  999.0,  999.0,  999.0,  999.0,  999.0,  999.0,  999.0,  999.0,  999.0,  999.0,  999.0,  999.0,  999.0,  999.0,  999.0,  999.0,  999.0,  999.0,  999.0,  999.0,  999.0,  999.0,  999.0,  999.0,  999.0
2008/06/09 23:30,   -0.0,   -0.1,    0.2,  999.0,    0.1,   -0.1,  999.0,   -0.2,   -0.1,   -0.1,   -0.2,   -0.2,    0.1,    0.3,  999.0,   -0.6,   -1.0,   -1.1,   -1.3,   -1.0,   -1.7,   -2.4,   -1.5,   -1.6,   -1.2,   -1.1,   -1.1,   -2.0,   -0.9,   -2.0,  999.0,  999.0,  999.0,  999.0,  999.0,  999.0,  999.0,  999.0,   -4.2,  999.0,   -4.7,   -4.2,   -3.6,   -1.4,   -1.4,   -0.9,  999.0,  999.0,  999.0,  999.0,  999.0,  999.0,  999.0,  999.0,  999.0,  999.0,  999.0,  999.0,  999.0,  999.0,  999.0,  999.0,  999.0,  999.0,  999.0,  999.0,  999.0,  999.0,  999.0,  999.0,  999.0,  999.0,  999.0,  999.0,  999.0,  999.0,  999.0,  999.0,  999.0,  999.0,  999.0,  999.0,  999.0,  999.0,  999.0,  999.0,  999.0,  999.0,  999.0,  999.0,  999.0,  999.0,  999.0,  999.0,  999.0,  999.0,  999.0,  999.0,  999.0
2008/06/09 23:40,    0.0,  999.0,  999.0,  999.0,   -0.0,    0.4,    0.0,    0.1,  999.0,   -0.0,   -0.2,   -0.1,    0.0,    0.2,    0.1,    0.1,    0.0,   -0.0,   -0.1,  999.0,  999.0,  999.0,   -0.1,    0.0,    0.0,   -2.0,   -6.0,   -5.9,   -3.7,   -3.5,   -4.8,   -4.7,   -4.2,   -4.3,   -4.3,   -3.9,   -3.6,   -3.9,   -4.3,   -4.0,   -3.8,   -3.6,   -3.1,   -2.3,  999.0,  999.0,  999.0,  999.0,  999.0,  999.0,  999.0,  999.0,  999.0,  999.0,  999.0,  999.0,  999.0,  999.0,  999.0,   -0.3,  999.0,  999.0,  999.0,  999.0,  999.0,  999.0,  999.0,  999.0,  999.0,  999.0,  999.0,  999.0,  999.0,  999.0,  999.0,  999.0,  999.0,  999.0,  999.0,  999.0,  999.0,  999.0,  999.0,  999.0,  999.0,  999.0,  999.0,  999.0,  999.0,  999.0,  999.0,  999.0,  999.0,  999.0,   -0.6,  999.0,  999.0,  999.0,  999.0
2008/06/09 23:50,  999.0,   -0.0,    0.1,    0.2,    0.1,    0.1,    0.1,    0.1,    0.1,    0.0,    0.0,    0.1,    0.3,    0.3,   -0.1,    0.0,  999.0,   -0.2,  999.0,  999.0,  999.0,  999.0,   -3.5,   -3.7,   -3.6,   -3.4,   -3.2,   -3.0,   -3.1,   -3.1,   -3.2,   -2.9,   -2.8,   -3.0,  999.0,  999.0,  999.0,  999.0,  999.0,  999.0,   -0.1,  999.0,  999.0,  999.0,  999.0,   -1.2,   -0.9,  999.0,  999.0,  999.0,  999.0,  999.0,  999.0,  999.0,  999.0,  999.0,   -1.2,   -1.2,  999.0,   -0.8,   -0.8,  999.0,   -0.9,  999.0,   -0.9,  999.0,  999.0,  999.0,  999.0,  999.0,  999.0,  999.0,  999.0,  999.0,  999.0,  999.0,  999.0,  999.0,  999.0,  999.0,  999.0,  999.0,  999.0,  999.0,  999.0,  999.0,  999.0,  999.0,  999.0,  999.0,  999.0,  999.0,  999.0,  999.0,  999.0,  999.0,  999.0,  999.0,  999.0
